Observation data for Fort Lancaster on 11/09/2019      Previous  Date       Current Mesonet Observations  Soil Data  Daily Summary Page  Observations in Plain Language
KLA1 090600Z 00000KT 10/08 A3034 RMK A01 T00980084  RH  091%=      5-min Rain = 0
KLA1 090601Z 00000KT 10/09 A3034 RMK A01 T00990085  RH  091%=      5-min Rain = 0
KLA1 090602Z 00000KT 10/09 A3033 RMK A01 T00990086  RH  092%=      5-min Rain = 0
KLA1 090603Z 30000KT 10/09 A3033 RMK A01 T01000088  RH  093%=      5-min Rain = 0
KLA1 090604Z 30001KT 10/09 A3033 RMK A01 T01000089  RH  093%=      5-min Rain = 0
KLA1 090605Z 30000KT 10/09 A3033 RMK A01 T01000089  RH  093%=      5-min Rain = 0
KLA1 090606Z 30000KT 10/09 A3033 RMK A01 T01000090  RH  093%=      5-min Rain = 0
KLA1 090607Z 30000KT 10/09 A3033 RMK A01 T01000090  RH  093%=      5-min Rain = 0
KLA1 090608Z 00000KT 10/09 A3033 RMK A01 T01000090  RH  094%=      5-min Rain = 0
KLA1 090609Z 00000KT 10/09 A3033 RMK A01 T01000090  RH  094%=      5-min Rain = 0
KLA1 090610Z 30000KT 10/09 A3033 RMK A01 T01000090  RH  094%=      5-min Rain = 0
KLA1 090611Z 30000KT 10/09 A3033 RMK A01 T01000090  RH  094%=      5-min Rain = 0
KLA1 090612Z 30000KT 10/09 A3033 RMK A01 T00990090  RH  094%=      5-min Rain = 0
KLA1 090613Z 30000KT 10/09 A3032 RMK A01 T01000090  RH  094%=      5-min Rain = 0
KLA1 090614Z 30000KT 10/09 A3032 RMK A01 T00990090  RH  094%=      5-min Rain = 0
KLA1 090615Z 30000KT 10/09 A3032 RMK A01 T01000090  RH  094%=      5-min Rain = 0
KLA1 090616Z 30000KT 10/09 A3032 RMK A01 T00990090  RH  094%=      5-min Rain = 0
KLA1 090617Z 00000KT 10/09 A3032 RMK A01 T00990091  RH  094%=      5-min Rain = 0
KLA1 090618Z 00000KT 10/09 A3032 RMK A01 T00990090  RH  094%=      5-min Rain = 0
KLA1 090619Z 00000KT 10/09 A3032 RMK A01 T00990091  RH  094%=      5-min Rain = 0
KLA1 090620Z 00000KT 10/09 A3032 RMK A01 T00990091  RH  095%=      5-min Rain = 0
KLA1 090621Z 00000KT 10/09 A3032 RMK A01 T01000091  RH  095%=      5-min Rain = 0
KLA1 090622Z 00000KT 10/09 A3032 RMK A01 T00990091  RH  095%=      5-min Rain = 0
KLA1 090623Z 00000KT 10/09 A3032 RMK A01 T00990091  RH  095%=      5-min Rain = 0
KLA1 090624Z 00000KT 10/09 A3032 RMK A01 T00990091  RH  094%=      5-min Rain = 0
KLA1 090625Z 00000KT 10/09 A3032 RMK A01 T01000091  RH  094%=      5-min Rain = 0
KLA1 090626Z 00000KT 10/09 A3032 RMK A01 T01000091  RH  094%=      5-min Rain = 0
KLA1 090627Z 00000KT 10/09 A3033 RMK A01 T01000091  RH  095%=      5-min Rain = 0
KLA1 090628Z 00000KT 10/09 A3033 RMK A01 T01000091  RH  095%=      5-min Rain = 0
KLA1 090629Z 00000KT 10/09 A3033 RMK A01 T01000092  RH  095%=      5-min Rain = 0
KLA1 090630Z 00000KT 10/09 A3033 RMK A01 T01000092  RH  095%=      5-min Rain = 0
KLA1 090631Z 00000KT 10/09 A3033 RMK A01 T01000092  RH  095%=      5-min Rain = 0
KLA1 090632Z 00000KT 10/09 A3033 RMK A01 T01000092  RH  095%=      5-min Rain = 0
KLA1 090633Z 00000KT 10/09 A3033 RMK A01 T01000091  RH  094%=      5-min Rain = 0
KLA1 090634Z 00000KT 10/09 A3033 RMK A01 T01000090  RH  094%=      5-min Rain = 0
KLA1 090635Z 00000KT 10/09 A3033 RMK A01 T01000090  RH  094%=      5-min Rain = 0
KLA1 090636Z 00000KT 10/09 A3033 RMK A01 T01000090  RH  094%=      5-min Rain = 0
KLA1 090637Z 00000KT 10/09 A3033 RMK A01 T01000090  RH  093%=      5-min Rain = 0
KLA1 090638Z 21000KT 10/09 A3032 RMK A01 T01000090  RH  093%=      5-min Rain = 0
KLA1 090639Z 20001KT 10/09 A3032 RMK A01 T01000090  RH  093%=      5-min Rain = 0
KLA1 090640Z 20001KT 10/09 A3032 RMK A01 T01000090  RH  093%=      5-min Rain = 0
KLA1 090641Z 20001KT 10/09 A3032 RMK A01 T01000090  RH  093%=      5-min Rain = 0
KLA1 090642Z 20001KT 10/09 A3032 RMK A01 T01000090  RH  093%=      5-min Rain = 0
KLA1 090643Z 20000KT 10/09 A3032 RMK A01 T01000090  RH  094%=      5-min Rain = 0
KLA1 090644Z 20000KT 10/09 A3032 RMK A01 T01000090  RH  093%=      5-min Rain = 0
KLA1 090645Z 00000KT 10/09 A3032 RMK A01 T01000090  RH  093%=      5-min Rain = 0
KLA1 090646Z 00000KT 10/09 A3032 RMK A01 T01000090  RH  094%=      5-min Rain = 0
KLA1 090647Z 20000KT 10/09 A3032 RMK A01 T01000091  RH  094%=      5-min Rain = 0
KLA1 090648Z 20001KT 10/09 A3032 RMK A01 T01000091  RH  094%=      5-min Rain = 0
KLA1 090649Z 21001KT 10/09 A3032 RMK A01 T01000091  RH  094%=      5-min Rain = 0
KLA1 090650Z 21001KT 10/09 A3032 RMK A01 T01000091  RH  094%=      5-min Rain = 0
KLA1 090651Z 21001KT 10/09 A3032 RMK A01 T01000092  RH  095%=      5-min Rain = 0
KLA1 090652Z 22001KT 10/09 A3032 RMK A01 T01000092  RH  094%=      5-min Rain = 0
KLA1 090653Z 22000KT 10/09 A3032 RMK A01 T01000091  RH  094%=      5-min Rain = 0
KLA1 090654Z 00000KT 10/09 A3032 RMK A01 T01000090  RH  094%=      5-min Rain = 0
KLA1 090655Z 00000KT 10/09 A3032 RMK A01 T01000090  RH  094%=      5-min Rain = 0
KLA1 090656Z 00000KT 10/09 A3032 RMK A01 T01000090  RH  093%=      5-min Rain = 0
KLA1 090657Z 00000KT 10/09 A3032 RMK A01 T01000090  RH  093%=      5-min Rain = 0
KLA1 090658Z 00000KT 10/09 A3032 RMK A01 T01000090  RH  093%=      5-min Rain = 0
KLA1 090659Z 00000KT 10/09 A3032 RMK A01 T01000090  RH  094%=      5-min Rain = 0
KLA1 090700Z 00000KT 10/09 A3032 RMK A01 T01000090  RH  094%=      5-min Rain = 0
KLA1 090701Z 00000KT 10/09 A3031 RMK A01 T01000090  RH  094%=      5-min Rain = 0
KLA1 090702Z 16001KT 10/09 A3031 RMK A01 T01000091  RH  094%=      5-min Rain = 0
KLA1 090703Z 15002KT 10/09 A3031 RMK A01 T01000092  RH  095%=      5-min Rain = 0
KLA1 090704Z 14002KT 10/09 A3031 RMK A01 T01000092  RH  095%=      5-min Rain = 0
KLA1 090705Z 13002KT 10/09 A3031 RMK A01 T01000093  RH  095%=      5-min Rain = 0
KLA1 090706Z 13002KT 10/09 A3031 RMK A01 T01000094  RH  096%=      5-min Rain = 0
KLA1 090707Z 13002KT 10/10 A3031 RMK A01 T01000095  RH  096%=      5-min Rain = 0
KLA1 090708Z 13002KT 10/10 A3031 RMK A01 T01000095  RH  097%=      5-min Rain = 0
KLA1 090709Z 12002KT 10/10 A3031 RMK A01 T01000096  RH  097%=      5-min Rain = 0
KLA1 090710Z 12001KT 10/10 A3031 RMK A01 T01000096  RH  097%=      5-min Rain = 0
KLA1 090711Z 12001KT 10/10 A3031 RMK A01 T01000096  RH  097%=      5-min Rain = 0
KLA1 090712Z 09001KT 10/10 A3031 RMK A01 T01000096  RH  098%=      5-min Rain = 0
KLA1 090713Z 09001KT 10/10 A3031 RMK A01 T00990096  RH  098%=      5-min Rain = 0
KLA1 090714Z 08002KT 10/10 A3031 RMK A01 T00990096  RH  098%=      5-min Rain = 0
KLA1 090715Z 10002KT 10/09 A3031 RMK A01 T00990094  RH  097%=      5-min Rain = 0
KLA1 090718Z 10001KT 10/09 A3031 RMK A01 T00980087  RH  093%=      5-min Rain = 0
KLA1 090719Z 09001KT 10/09 A3031 RMK A01 T00980087  RH  093%=      5-min Rain = 0
KLA1 090720Z 08001KT 10/09 A3031 RMK A01 T00980086  RH  092%=      5-min Rain = 0
KLA1 090721Z 08001KT 10/09 A3032 RMK A01 T00990086  RH  092%=      5-min Rain = 0
KLA1 090722Z 08000KT 10/09 A3032 RMK A01 T00990085  RH  091%=      5-min Rain = 0
KLA1 090723Z 00000KT 10/08 A3032 RMK A01 T00990084  RH  090%=      5-min Rain = 0
KLA1 090724Z 06000KT 10/08 A3032 RMK A01 T00990084  RH  090%=      5-min Rain = 0
KLA1 090725Z 06000KT 10/08 A3032 RMK A01 T00990084  RH  090%=      5-min Rain = 0
KLA1 090726Z 07001KT 10/08 A3032 RMK A01 T01000084  RH  090%=      5-min Rain = 0
KLA1 090727Z 07001KT 10/08 A3032 RMK A01 T01000084  RH  090%=      5-min Rain = 0
KLA1 090728Z 07000KT 10/08 A3032 RMK A01 T01000084  RH  089%=      5-min Rain = 0
KLA1 090729Z 07000KT 10/08 A3032 RMK A01 T01000083  RH  089%=      5-min Rain = 0
KLA1 090730Z 00000KT 10/09 A3031 RMK A01 T01010085  RH  090%=      5-min Rain = 0
KLA1 090731Z 12000KT 10/09 A3031 RMK A01 T01010086  RH  090%=      5-min Rain = 0
KLA1 090732Z 12002KT 10/08 A3031 RMK A01 T01010084  RH  089%=      5-min Rain = 0
KLA1 090733Z 12002KT 10/08 A3031 RMK A01 T01010084  RH  090%=      5-min Rain = 0
KLA1 090734Z 12002KT 10/09 A3031 RMK A01 T01010085  RH  090%=      5-min Rain = 0
KLA1 090735Z 13002KT 10/09 A3031 RMK A01 T01010085  RH  090%=      5-min Rain = 0
KLA1 090736Z 13002KT 10/09 A3031 RMK A01 T01010085  RH  090%=      5-min Rain = 0
KLA1 090737Z 13001KT 10/08 A3031 RMK A01 T01010084  RH  090%=      5-min Rain = 0
KLA1 090738Z 12001KT 10/08 A3031 RMK A01 T01010084  RH  089%=      5-min Rain = 0
KLA1 090739Z 12001KT 10/09 A3031 RMK A01 T01010085  RH  089%=      5-min Rain = 0
KLA1 090740Z 12001KT 10/09 A3031 RMK A01 T01010085  RH  090%=      5-min Rain = 0
KLA1 090741Z 12002KT 10/09 A3031 RMK A01 T01010085  RH  090%=      5-min Rain = 0
KLA1 090742Z 12003KT 10/08 A3031 RMK A01 T01010084  RH  089%=      5-min Rain = 0
KLA1 090743Z 12003KT 10/08 A3031 RMK A01 T01010084  RH  090%=      5-min Rain = 0
KLA1 090744Z 12003KT 10/08 A3031 RMK A01 T01000084  RH  089%=      5-min Rain = 0
KLA1 090745Z 11003KT 10/08 A3031 RMK A01 T01000084  RH  089%=      5-min Rain = 0
KLA1 090746Z 11003KT 10/08 A3031 RMK A01 T01000083  RH  089%=      5-min Rain = 0
KLA1 090747Z 11003KT 10/08 A3031 RMK A01 T01000083  RH  089%=      5-min Rain = 0
KLA1 090748Z 12002KT 10/08 A3031 RMK A01 T01000083  RH  089%=      5-min Rain = 0
KLA1 090749Z 12002KT 10/08 A3031 RMK A01 T01000083  RH  089%=      5-min Rain = 0
KLA1 090750Z 12002KT 10/08 A303 RMK A01 T01000084  RH  090%=      5-min Rain = 0
KLA1 090751Z 12002KT 10/08 A303 RMK A01 T01000084  RH  090%=      5-min Rain = 0
KLA1 090752Z 12003KT 10/08 A303 RMK A01 T01000084  RH  090%=      5-min Rain = 0
KLA1 090753Z 11003KT 10/08 A303 RMK A01 T01000084  RH  090%=      5-min Rain = 0
KLA1 090754Z 11002KT 10/08 A303 RMK A01 T00990084  RH  090%=      5-min Rain = 0
KLA1 090755Z 10001KT 10/08 A303 RMK A01 T00990084  RH  090%=      5-min Rain = 0
KLA1 090756Z 10002KT 10/08 A3031 RMK A01 T00990084  RH  090%=      5-min Rain = 0
KLA1 090757Z 11001KT 10/08 A303 RMK A01 T00990084  RH  090%=      5-min Rain = 0
KLA1 090758Z 10001KT 10/08 A303 RMK A01 T00990084  RH  091%=      5-min Rain = 0
KLA1 090759Z 10002KT 10/08 A303 RMK A01 T00980084  RH  091%=      5-min Rain = 0
KLA1 090800Z 11002KT 10/08 A303 RMK A01 T00980084  RH  091%=      5-min Rain = 0
KLA1 090801Z 10002KT 10/08 A303 RMK A01 T00980084  RH  091%=      5-min Rain = 0
KLA1 090802Z 11002KT 10/08 A303 RMK A01 T00980084  RH  091%=      5-min Rain = 0
KLA1 090803Z 11002KT 10/08 A303 RMK A01 T00980084  RH  091%=      5-min Rain = 0
KLA1 090804Z 10001KT 10/08 A303 RMK A01 T00980084  RH  091%=      5-min Rain = 0
KLA1 090805Z 10001KT 10/08 A303 RMK A01 T00970084  RH  091%=      5-min Rain = 0
KLA1 090806Z 11002KT 10/08 A303 RMK A01 T00970084  RH  091%=      5-min Rain = 0
KLA1 090807Z 11001KT 10/08 A303 RMK A01 T00970084  RH  091%=      5-min Rain = 0
KLA1 090808Z 11002KT 10/08 A303 RMK A01 T00970083  RH  091%=      5-min Rain = 0
KLA1 090809Z 11002KT 10/08 A303 RMK A01 T00970083  RH  091%=      5-min Rain = 0
KLA1 090810Z 12002KT 10/08 A3029 RMK A01 T00960083  RH  092%=      5-min Rain = 0
KLA1 090811Z 13002KT 10/08 A303 RMK A01 T00960084  RH  092%=      5-min Rain = 0
KLA1 090812Z 13002KT 10/08 A303 RMK A01 T00960084  RH  092%=      5-min Rain = 0
KLA1 090813Z 14002KT 10/08 A303 RMK A01 T00960084  RH  092%=      5-min Rain = 0
KLA1 090814Z 14002KT 10/08 A303 RMK A01 T00960084  RH  093%=      5-min Rain = 0
KLA1 090815Z 14002KT 10/08 A303 RMK A01 T00950084  RH  093%=      5-min Rain = 0
KLA1 090816Z 14002KT 10/09 A303 RMK A01 T00950085  RH  093%=      5-min Rain = 0
KLA1 090817Z 14002KT 10/09 A3029 RMK A01 T00950085  RH  093%=      5-min Rain = 0
KLA1 090818Z 13002KT 10/09 A3029 RMK A01 T00950085  RH  094%=      5-min Rain = 0
KLA1 090819Z 13002KT 09/09 A3029 RMK A01 T00940085  RH  094%=      5-min Rain = 0
KLA1 090820Z 13002KT 09/09 A3029 RMK A01 T00940085  RH  094%=      5-min Rain = 0
KLA1 090821Z 13001KT 09/09 A3029 RMK A01 T00940085  RH  094%=      5-min Rain = 0
KLA1 090822Z 12001KT 09/09 A3029 RMK A01 T00940086  RH  095%=      5-min Rain = 0
KLA1 090823Z 11001KT 09/09 A3029 RMK A01 T00940086  RH  095%=      5-min Rain = 0
KLA1 090824Z 10002KT 09/09 A3029 RMK A01 T00940086  RH  095%=      5-min Rain = 0
KLA1 090825Z 10002KT 09/09 A3029 RMK A01 T00930085  RH  095%=      5-min Rain = 0
KLA1 090826Z 10002KT 09/09 A303 RMK A01 T00930085  RH  095%=      5-min Rain = 0
KLA1 090827Z 10001KT 09/09 A303 RMK A01 T00930085  RH  095%=      5-min Rain = 0
KLA1 090828Z 10001KT 09/09 A303 RMK A01 T00930086  RH  095%=      5-min Rain = 0
KLA1 090829Z 10001KT 09/09 A3029 RMK A01 T00920086  RH  095%=      5-min Rain = 0
KLA1 090830Z 11001KT 09/09 A3029 RMK A01 T00920085  RH  096%=      5-min Rain = 0
KLA1 090831Z 11001KT 09/09 A3029 RMK A01 T00920086  RH  096%=      5-min Rain = 0
KLA1 090832Z 11001KT 09/09 A3029 RMK A01 T00920086  RH  096%=      5-min Rain = 0
KLA1 090833Z 11000KT 09/09 A3029 RMK A01 T00920086  RH  096%=      5-min Rain = 0
KLA1 090834Z 11000KT 09/09 A3029 RMK A01 T00920085  RH  096%=      5-min Rain = 0
KLA1 090835Z 11000KT 09/09 A3029 RMK A01 T00920086  RH  096%=      5-min Rain = 0
KLA1 090836Z 10000KT 09/09 A3029 RMK A01 T00920086  RH  097%=      5-min Rain = 0
KLA1 090837Z 08001KT 09/09 A3029 RMK A01 T00920087  RH  097%=      5-min Rain = 0
KLA1 090838Z 08001KT 09/09 A3028 RMK A01 T00920087  RH  097%=      5-min Rain = 0
KLA1 090839Z 07001KT 09/09 A3029 RMK A01 T00920087  RH  097%=      5-min Rain = 0
KLA1 090840Z 07000KT 09/09 A3029 RMK A01 T00920087  RH  097%=      5-min Rain = 0
KLA1 090841Z 07000KT 09/09 A3028 RMK A01 T00920088  RH  097%=      5-min Rain = 0
KLA1 090842Z 07001KT 09/09 A3028 RMK A01 T00920087  RH  097%=      5-min Rain = 0
KLA1 090843Z 07001KT 09/09 A3028 RMK A01 T00910087  RH  097%=      5-min Rain = 0
KLA1 090844Z 07002KT 09/09 A3028 RMK A01 T00920087  RH  097%=      5-min Rain = 0
KLA1 090845Z 07002KT 09/09 A3028 RMK A01 T00920087  RH  097%=      5-min Rain = 0
KLA1 090846Z 07002KT 09/09 A3028 RMK A01 T00920087  RH  097%=      5-min Rain = 0
KLA1 090847Z 06002KT 09/09 A3028 RMK A01 T00910087  RH  097%=      5-min Rain = 0
KLA1 090848Z 06002KT 09/09 A3028 RMK A01 T00910087  RH  097%=      5-min Rain = 0
KLA1 090849Z 06002KT 09/09 A3028 RMK A01 T00910087  RH  097%=      5-min Rain = 0
KLA1 090850Z 07002KT 09/09 A3028 RMK A01 T00910087  RH  097%=      5-min Rain = 0
KLA1 090851Z 06002KT 09/09 A3028 RMK A01 T00900086  RH  097%=      5-min Rain = 0
KLA1 090852Z 07002KT 09/09 A3028 RMK A01 T00900086  RH  098%=      5-min Rain = 0
KLA1 090853Z 07002KT 09/09 A3028 RMK A01 T00900086  RH  098%=      5-min Rain = 0
KLA1 090854Z 07002KT 09/09 A3028 RMK A01 T00900086  RH  098%=      5-min Rain = 0
KLA1 090855Z 07002KT 09/09 A3028 RMK A01 T00900087  RH  098%=      5-min Rain = 0
KLA1 090856Z 07001KT 09/09 A3028 RMK A01 T00900087  RH  098%=      5-min Rain = 0
KLA1 090857Z 07001KT 09/09 A3028 RMK A01 T00900087  RH  098%=      5-min Rain = 0
KLA1 090858Z 08001KT 09/09 A3028 RMK A01 T00900087  RH  098%=      5-min Rain = 0
KLA1 090859Z 08001KT 09/09 A3028 RMK A01 T00900087  RH  098%=      5-min Rain = 0
KLA1 090900Z 08001KT 09/09 A3027 RMK A01 T00900087  RH  098%=      5-min Rain = 0
KLA1 090901Z 08001KT 09/09 A3027 RMK A01 T00900088  RH  098%=      5-min Rain = 0
KLA1 090902Z 08001KT 09/09 A3027 RMK A01 T00900087  RH  098%=      5-min Rain = 0
KLA1 090903Z 08001KT 09/09 A3027 RMK A01 T00900087  RH  098%=      5-min Rain = 0
KLA1 090904Z 08000KT 09/09 A3027 RMK A01 T00900087  RH  098%=      5-min Rain = 0
KLA1 090905Z 08001KT 09/09 A3027 RMK A01 T00900087  RH  098%=      5-min Rain = 0
KLA1 090906Z 08001KT 09/09 A3027 RMK A01 T00890087  RH  098%=      5-min Rain = 0
KLA1 090907Z 08001KT 09/09 A3027 RMK A01 T00890086  RH  098%=      5-min Rain = 0
KLA1 090908Z 08001KT 09/09 A3027 RMK A01 T00890086  RH  098%=      5-min Rain = 0
KLA1 090909Z 08001KT 09/09 A3027 RMK A01 T00890086  RH  098%=      5-min Rain = 0
KLA1 090910Z 07001KT 09/09 A3027 RMK A01 T00890086  RH  098%=      5-min Rain = 0
KLA1 090911Z 07000KT 09/09 A3027 RMK A01 T00890086  RH  098%=      5-min Rain = 0
KLA1 090912Z 06000KT 09/09 A3027 RMK A01 T00890086  RH  098%=      5-min Rain = 0
KLA1 090913Z 06000KT 09/08 A3027 RMK A01 T00880084  RH  098%=      5-min Rain = 0
KLA1 090914Z 06000KT 09/09 A3027 RMK A01 T00870085  RH  098%=      5-min Rain = 0
KLA1 090915Z 06000KT 09/09 A3027 RMK A01 T00870085  RH  099%=      5-min Rain = 0
KLA1 090916Z 06000KT 09/09 A3027 RMK A01 T00880086  RH  099%=      5-min Rain = 0
KLA1 090917Z 00000KT 09/09 A3027 RMK A01 T00870085  RH  099%=      5-min Rain = 0
KLA1 090918Z 06000KT 09/09 A3027 RMK A01 T00870086  RH  099%=      5-min Rain = 0
KLA1 090919Z 00000KT 09/09 A3027 RMK A01 T00870086  RH  099%=      5-min Rain = 0
KLA1 090920Z 00000KT 09/08 A3027 RMK A01 T00860084  RH  099%=      5-min Rain = 0
KLA1 090921Z 00000KT 09/08 A3027 RMK A01 T00860083  RH  098%=      5-min Rain = 0
KLA1 090922Z 00000KT 08/08 A3027 RMK A01 T00840082  RH  098%=      5-min Rain = 0
KLA1 090923Z 00000KT 08/08 A3027 RMK A01 T00840081  RH  098%=      5-min Rain = 0
KLA1 090924Z 00000KT 08/08 A3027 RMK A01 T00830080  RH  098%=      5-min Rain = 0
KLA1 090925Z 00000KT 08/08 A3027 RMK A01 T00810078  RH  098%=      5-min Rain = 0
KLA1 090926Z 00000KT 08/08 A3027 RMK A01 T00790078  RH  099%=      5-min Rain = 0
KLA1 090927Z 00000KT 08/08 A3027 RMK A01 T00790079  RH  100%=      5-min Rain = 0
KLA1 090928Z 00000KT 08/08 A3027 RMK A01 T00790079  RH  100%=      5-min Rain = 0
KLA1 090929Z 00000KT 08/08 A3027 RMK A01 T00790079  RH  100%=      5-min Rain = 0
KLA1 090930Z 00000KT 08/08 A3027 RMK A01 T00780078  RH  100%=      5-min Rain = 0
KLA1 090931Z 06001KT 08/08 A3027 RMK A01 T00780078  RH  100%=      5-min Rain = 0
KLA1 090932Z 05001KT 08/08 A3027 RMK A01 T00780078  RH  100%=      5-min Rain = 0
KLA1 090933Z 05001KT 08/08 A3027 RMK A01 T00780078  RH  100%=      5-min Rain = 0
KLA1 090934Z 05001KT 08/08 A3027 RMK A01 T00780078  RH  100%=      5-min Rain = 0
KLA1 090935Z 05000KT 08/08 A3027 RMK A01 T00780078  RH  100%=      5-min Rain = 0
KLA1 090936Z 00000KT 08/08 A3027 RMK A01 T00780078  RH  100%=      5-min Rain = 0
KLA1 090937Z 00000KT 08/08 A3027 RMK A01 T00780078  RH  100%=      5-min Rain = 0
KLA1 090938Z 00000KT 08/08 A3027 RMK A01 T00780078  RH  100%=      5-min Rain = 0
KLA1 090939Z 00000KT 08/08 A3027 RMK A01 T00770077  RH  100%=      5-min Rain = 0
KLA1 090940Z 00000KT 08/08 A3027 RMK A01 T00760076  RH  100%=      5-min Rain = 0
KLA1 090941Z 00000KT 08/08 A3027 RMK A01 T00760076  RH  100%=      5-min Rain = 0
KLA1 090942Z 00000KT 08/08 A3027 RMK A01 T00750075  RH  100%=      5-min Rain = 0
KLA1 090943Z 00000KT 08/08 A3027 RMK A01 T00750075  RH  100%=      5-min Rain = 0
KLA1 090944Z 00000KT 07/07 A3027 RMK A01 T00740074  RH  100%=      5-min Rain = 0
KLA1 090945Z 00000KT 07/07 A3027 RMK A01 T00740074  RH  100%=      5-min Rain = 0
KLA1 090946Z 00000KT 07/07 A3027 RMK A01 T00740074  RH  100%=      5-min Rain = 0
KLA1 090947Z 00000KT 07/07 A3027 RMK A01 T00740074  RH  100%=      5-min Rain = 0
KLA1 090948Z 00000KT 07/07 A3027 RMK A01 T00740074  RH  100%=      5-min Rain = 0
KLA1 090949Z 00000KT 07/07 A3027 RMK A01 T00730073  RH  100%=      5-min Rain = 0
KLA1 090950Z 00000KT 07/07 A3028 RMK A01 T00720072  RH  100%=      5-min Rain = 0
KLA1 090951Z 00000KT 07/07 A3028 RMK A01 T00700070  RH  100%=      5-min Rain = 0
KLA1 090952Z 00000KT 07/07 A3028 RMK A01 T00680068  RH  100%=      5-min Rain = 0
KLA1 090953Z 00000KT 07/07 A3028 RMK A01 T00680068  RH  100%=      5-min Rain = 0
KLA1 090954Z 00000KT 07/07 A3028 RMK A01 T00680068  RH  100%=      5-min Rain = 0
KLA1 090955Z 00000KT 07/07 A3028 RMK A01 T00690069  RH  100%=      5-min Rain = 0
KLA1 090956Z 00000KT 07/07 A3028 RMK A01 T00700070  RH  100%=      5-min Rain = 0
KLA1 090957Z 00000KT 07/07 A3028 RMK A01 T00700070  RH  100%=      5-min Rain = 0
KLA1 090958Z 00000KT 07/07 A3027 RMK A01 T00700070  RH  100%=      5-min Rain = 0
KLA1 090959Z 05000KT 07/07 A3027 RMK A01 T00710071  RH  100%=      5-min Rain = 0
KLA1 091000Z 05000KT 07/07 A3027 RMK A01 T00710071  RH  100%=      5-min Rain = 0
KLA1 091001Z 00000KT 07/07 A3027 RMK A01 T00720072  RH  100%=      5-min Rain = 0
KLA1 091002Z 00000KT 07/07 A3027 RMK A01 T00730073  RH  100%=      5-min Rain = 0
KLA1 091003Z 00000KT 07/07 A3027 RMK A01 T00730073  RH  100%=      5-min Rain = 0
KLA1 091004Z 03001KT 07/07 A3027 RMK A01 T00730073  RH  100%=      5-min Rain = 0
KLA1 091005Z 03002KT 07/07 A3027 RMK A01 T00730073  RH  100%=      5-min Rain = 0
KLA1 091006Z 02002KT 07/07 A3027 RMK A01 T00740074  RH  100%=      5-min Rain = 0
KLA1 091007Z 02002KT 07/07 A3027 RMK A01 T00740074  RH  100%=      5-min Rain = 0
KLA1 091008Z 02002KT 07/07 A3027 RMK A01 T00740074  RH  100%=      5-min Rain = 0
KLA1 091009Z 02002KT 07/07 A3027 RMK A01 T00730073  RH  100%=      5-min Rain = 0
KLA1 091010Z 02002KT 07/07 A3028 RMK A01 T00730073  RH  100%=      5-min Rain = 0
KLA1 091011Z 02001KT 07/07 A3028 RMK A01 T00730073  RH  100%=      5-min Rain = 0
KLA1 091012Z 02001KT 07/07 A3028 RMK A01 T00740074  RH  100%=      5-min Rain = 0
KLA1 091013Z 02001KT 07/07 A3028 RMK A01 T00740074  RH  100%=      5-min Rain = 0
KLA1 091014Z 02001KT 08/08 A3028 RMK A01 T00750075  RH  100%=      5-min Rain = 0
KLA1 091015Z 02001KT 08/08 A3028 RMK A01 T00760076  RH  100%=      5-min Rain = 0
KLA1 091016Z 02001KT 08/08 A3028 RMK A01 T00760076  RH  100%=      5-min Rain = 0
KLA1 091017Z 02001KT 08/08 A3028 RMK A01 T00760076  RH  100%=      5-min Rain = 0
KLA1 091018Z 02001KT 08/08 A3028 RMK A01 T00770077  RH  100%=      5-min Rain = 0
KLA1 091019Z 02002KT 08/08 A3028 RMK A01 T00770077  RH  100%=      5-min Rain = 0
KLA1 091020Z 01003KT 08/08 A3028 RMK A01 T00780078  RH  100%=      5-min Rain = 0
KLA1 091021Z 01003KT 08/08 A3028 RMK A01 T00780078  RH  100%=      5-min Rain = 0
KLA1 091022Z 01003KT 08/08 A3028 RMK A01 T00780078  RH  100%=      5-min Rain = 0
KLA1 091023Z 01003KT 08/08 A3028 RMK A01 T00780078  RH  100%=      5-min Rain = 0
KLA1 091024Z 01002KT 08/08 A3028 RMK A01 T00770077  RH  100%=      5-min Rain = 0
KLA1 091025Z 01001KT 08/08 A3028 RMK A01 T00770077  RH  100%=      5-min Rain = 0
KLA1 091026Z 01001KT 08/08 A3028 RMK A01 T00770077  RH  100%=      5-min Rain = 0
KLA1 091027Z 01001KT 08/08 A3028 RMK A01 T00770077  RH  100%=      5-min Rain = 0
KLA1 091028Z 01001KT 08/08 A3028 RMK A01 T00770077  RH  100%=      5-min Rain = 0
KLA1 091029Z 01001KT 08/08 A3028 RMK A01 T00770077  RH  100%=      5-min Rain = 0
KLA1 091030Z 01001KT 08/08 A3028 RMK A01 T00780078  RH  100%=      5-min Rain = 0
KLA1 091031Z 01001KT 08/08 A3028 RMK A01 T00790079  RH  100%=      5-min Rain = 0
KLA1 091032Z 01000KT 08/08 A3028 RMK A01 T00800080  RH  100%=      5-min Rain = 0
KLA1 091033Z 00000KT 08/08 A3028 RMK A01 T00810081  RH  100%=      5-min Rain = 0
KLA1 091034Z 00000KT 08/08 A3028 RMK A01 T00820082  RH  100%=      5-min Rain = 0
KLA1 091035Z 00000KT 08/08 A3028 RMK A01 T00820082  RH  100%=      5-min Rain = 0
KLA1 091036Z 00000KT 08/08 A3028 RMK A01 T00820082  RH  100%=      5-min Rain = 0
KLA1 091037Z 00000KT 08/08 A3028 RMK A01 T00830083  RH  100%=      5-min Rain = 0
KLA1 091038Z 00000KT 08/08 A3028 RMK A01 T00830083  RH  100%=      5-min Rain = 0
KLA1 091039Z 00000KT 08/08 A3028 RMK A01 T00830083  RH  100%=      5-min Rain = 0
KLA1 091040Z 00000KT 08/08 A3028 RMK A01 T00830083  RH  100%=      5-min Rain = 0
KLA1 091041Z 00000KT 08/08 A3028 RMK A01 T00830083  RH  100%=      5-min Rain = 0
KLA1 091042Z 00000KT 08/08 A3028 RMK A01 T00820082  RH  100%=      5-min Rain = 0
KLA1 091043Z 00000KT 08/08 A3028 RMK A01 T00820082  RH  100%=      5-min Rain = 0
KLA1 091044Z 00000KT 08/08 A3028 RMK A01 T00820082  RH  100%=      5-min Rain = 0
KLA1 091045Z 00000KT 08/08 A3028 RMK A01 T00820082  RH  100%=      5-min Rain = 0
KLA1 091046Z 00000KT 08/08 A3028 RMK A01 T00820082  RH  100%=      5-min Rain = 0
KLA1 091047Z 00000KT 08/08 A3028 RMK A01 T00820082  RH  100%=      5-min Rain = 0
KLA1 091048Z 00000KT 08/08 A3028 RMK A01 T00820082  RH  100%=      5-min Rain = 0
KLA1 091049Z 00000KT 08/08 A3028 RMK A01 T00820082  RH  100%=      5-min Rain = 0
KLA1 091050Z 00000KT 08/08 A3028 RMK A01 T00810081  RH  100%=      5-min Rain = 0
KLA1 091051Z 00000KT 08/08 A3028 RMK A01 T00810081  RH  100%=      5-min Rain = 0
KLA1 091052Z 00000KT 08/08 A3028 RMK A01 T00800080  RH  100%=      5-min Rain = 0
KLA1 091053Z 00000KT 08/08 A3028 RMK A01 T00800080  RH  100%=      5-min Rain = 0
KLA1 091054Z 00000KT 08/08 A3028 RMK A01 T00800080  RH  100%=      5-min Rain = 0
KLA1 091055Z 00000KT 08/08 A3028 RMK A01 T00790079  RH  100%=      5-min Rain = 0
KLA1 091056Z 00000KT 08/08 A3028 RMK A01 T00790079  RH  100%=      5-min Rain = 0
KLA1 091057Z 00000KT 08/08 A3028 RMK A01 T00790079  RH  100%=      5-min Rain = 0
KLA1 091058Z 00000KT 08/08 A3028 RMK A01 T00780078  RH  100%=      5-min Rain = 0
KLA1 091059Z 00000KT 08/08 A3028 RMK A01 T00780078  RH  100%=      5-min Rain = 0
KLA1 091100Z 00000KT 08/08 A3028 RMK A01 T00780078  RH  100%=      5-min Rain = 0
KLA1 091101Z 00000KT 08/08 A3028 RMK A01 T00770078  RH  100%=      5-min Rain = 0
KLA1 091102Z 00000KT 08/08 A3028 RMK A01 T00770077  RH  100%=      5-min Rain = 0
KLA1 091103Z 00000KT 08/08 A3028 RMK A01 T00770077  RH  100%=      5-min Rain = 0
KLA1 091104Z 00000KT 08/08 A3028 RMK A01 T00770077  RH  100%=      5-min Rain = 0
KLA1 091105Z 00000KT 08/08 A3028 RMK A01 T00760076  RH  100%=      5-min Rain = 0
KLA1 091106Z 00000KT 08/08 A3028 RMK A01 T00760076  RH  100%=      5-min Rain = 0
KLA1 091107Z 00000KT 08/08 A3028 RMK A01 T00760076  RH  100%=      5-min Rain = 0
KLA1 091108Z 00000KT 08/08 A3028 RMK A01 T00760076  RH  100%=      5-min Rain = 0
KLA1 091109Z 00000KT 08/08 A3028 RMK A01 T00760076  RH  100%=      5-min Rain = 0
KLA1 091110Z 00000KT 08/08 A3028 RMK A01 T00760076  RH  100%=      5-min Rain = 0
KLA1 091111Z 00000KT 08/08 A3028 RMK A01 T00760076  RH  100%=      5-min Rain = 0
KLA1 091112Z 00000KT 08/08 A3028 RMK A01 T00770077  RH  100%=      5-min Rain = 0
KLA1 091113Z 00000KT 08/08 A3028 RMK A01 T00760076  RH  100%=      5-min Rain = 0
KLA1 091114Z 00000KT 08/08 A3028 RMK A01 T00760076  RH  100%=      5-min Rain = 0
KLA1 091115Z 00000KT 08/08 A3028 RMK A01 T00760076  RH  100%=      5-min Rain = 0
KLA1 091116Z 00000KT 08/08 A3028 RMK A01 T00760076  RH  100%=      5-min Rain = 0
KLA1 091117Z 00000KT 08/08 A3028 RMK A01 T00750075  RH  100%=      5-min Rain = 0
KLA1 091118Z 00000KT 08/08 A3028 RMK A01 T00750075  RH  100%=      5-min Rain = 0
KLA1 091119Z 00000KT 08/08 A3028 RMK A01 T00750075  RH  100%=      5-min Rain = 0
KLA1 091120Z 00000KT 08/08 A3028 RMK A01 T00750075  RH  100%=      5-min Rain = 0
KLA1 091121Z 00000KT 08/08 A3028 RMK A01 T00750075  RH  100%=      5-min Rain = 0
KLA1 091122Z 15001KT 08/08 A3028 RMK A01 T00750075  RH  100%=      5-min Rain = 0
KLA1 091123Z 15001KT 08/08 A3028 RMK A01 T00750075  RH  100%=      5-min Rain = 0
KLA1 091124Z 15001KT 08/08 A3028 RMK A01 T00750075  RH  100%=      5-min Rain = 0
KLA1 091125Z 15000KT 08/08 A3028 RMK A01 T00750075  RH  100%=      5-min Rain = 0
KLA1 091126Z 16000KT 08/08 A3029 RMK A01 T00750075  RH  100%=      5-min Rain = 0
KLA1 091127Z 16001KT 08/08 A3029 RMK A01 T00750075  RH  100%=      5-min Rain = 0
KLA1 091128Z 16001KT 08/08 A3029 RMK A01 T00750075  RH  100%=      5-min Rain = 0
KLA1 091129Z 16001KT 08/08 A3029 RMK A01 T00750075  RH  100%=      5-min Rain = 0
KLA1 091130Z 16001KT 08/08 A3029 RMK A01 T00750075  RH  100%=      5-min Rain = 0
KLA1 091131Z 15001KT 08/08 A3029 RMK A01 T00750075  RH  100%=      5-min Rain = 0
KLA1 091132Z 15001KT 08/08 A3029 RMK A01 T00750075  RH  100%=      5-min Rain = 0
KLA1 091133Z 15000KT 08/08 A3029 RMK A01 T00750075  RH  100%=      5-min Rain = 0
KLA1 091134Z 00000KT 08/08 A3029 RMK A01 T00750075  RH  100%=      5-min Rain = 0
KLA1 091135Z 00000KT 08/08 A3028 RMK A01 T00760076  RH  100%=      5-min Rain = 0
KLA1 091136Z 00000KT 08/08 A3028 RMK A01 T00760076  RH  100%=      5-min Rain = 0
KLA1 091137Z 00000KT 08/08 A3028 RMK A01 T00760076  RH  100%=      5-min Rain = 0
KLA1 091138Z 00000KT 08/08 A3028 RMK A01 T00760076  RH  100%=      5-min Rain = 0
KLA1 091139Z 00000KT 08/08 A3028 RMK A01 T00760076  RH  100%=      5-min Rain = 0
KLA1 091140Z 00000KT 08/08 A3028 RMK A01 T00770077  RH  100%=      5-min Rain = 0
KLA1 091141Z 00000KT 08/08 A3028 RMK A01 T00770077  RH  100%=      5-min Rain = 0
KLA1 091142Z 00000KT 08/08 A3028 RMK A01 T00770077  RH  100%=      5-min Rain = 0
KLA1 091143Z 11000KT 08/08 A3028 RMK A01 T00770077  RH  100%=      5-min Rain = 0
KLA1 091144Z 09001KT 08/08 A3028 RMK A01 T00770077  RH  100%=      5-min Rain = 0
KLA1 091145Z 08002KT 08/08 A3028 RMK A01 T00770077  RH  100%=      5-min Rain = 0
KLA1 091146Z 08002KT 08/08 A3028 RMK A01 T00770077  RH  100%=      5-min Rain = 0
KLA1 091147Z 09002KT 08/08 A3028 RMK A01 T00770077  RH  100%=      5-min Rain = 0
KLA1 091148Z 08001KT 08/08 A3028 RMK A01 T00790079  RH  100%=      5-min Rain = 0
KLA1 091149Z 09001KT 08/08 A3028 RMK A01 T00790079  RH  100%=      5-min Rain = 0
KLA1 091150Z 08001KT 08/08 A3028 RMK A01 T00790079  RH  100%=      5-min Rain = 0
KLA1 091151Z 08001KT 08/08 A3028 RMK A01 T00790079  RH  100%=      5-min Rain = 0
KLA1 091152Z 09002KT 08/08 A3028 RMK A01 T00790079  RH  100%=      5-min Rain = 0
KLA1 091153Z 09002KT 08/08 A3028 RMK A01 T00790079  RH  100%=      5-min Rain = 0
KLA1 091154Z 09003KT 08/08 A3028 RMK A01 T00790079  RH  100%=      5-min Rain = 0
KLA1 091155Z 09002KT 08/08 A3028 RMK A01 T00790079  RH  100%=      5-min Rain = 0
KLA1 091156Z 10001KT 08/08 A3028 RMK A01 T00790079  RH  100%=      5-min Rain = 0
KLA1 091157Z 10002KT 08/08 A3028 RMK A01 T00780078  RH  100%=      5-min Rain = 0
KLA1 091158Z 10002KT 08/08 A3028 RMK A01 T00780078  RH  100%=      5-min Rain = 0
KLA1 091159Z 11001KT 08/08 A3028 RMK A01 T00790079  RH  100%=      5-min Rain = 0
KLA1 091200Z 11002KT 08/08 A3028 RMK A01 T00790079  RH  100%=      5-min Rain = 0
KLA1 091201Z 11002KT 08/08 A3028 RMK A01 T00790079  RH  100%=      5-min Rain = 0
KLA1 091202Z 10002KT 08/08 A3028 RMK A01 T00790079  RH  100%=      5-min Rain = 0
KLA1 091203Z 10001KT 08/08 A3028 RMK A01 T00790079  RH  100%=      5-min Rain = 0
KLA1 091204Z 10000KT 08/08 A3028 RMK A01 T00790079  RH  100%=      5-min Rain = 0
KLA1 091205Z 10000KT 08/08 A3028 RMK A01 T00790079  RH  100%=      5-min Rain = 0
KLA1 091206Z 08000KT 08/08 A3028 RMK A01 T00790079  RH  100%=      5-min Rain = 0
KLA1 091207Z 08000KT 08/08 A3029 RMK A01 T00790079  RH  100%=      5-min Rain = 0
KLA1 091208Z 08000KT 08/08 A3029 RMK A01 T00800080  RH  100%=      5-min Rain = 0
KLA1 091209Z 00000KT 08/08 A3029 RMK A01 T00800080  RH  100%=      5-min Rain = 0
KLA1 091210Z 00000KT 08/08 A3029 RMK A01 T00800080  RH  100%=      5-min Rain = 0
KLA1 091211Z 00000KT 08/08 A3029 RMK A01 T00800080  RH  100%=      5-min Rain = 0
KLA1 091212Z 00000KT 08/08 A3029 RMK A01 T00790079  RH  100%=      5-min Rain = 0
KLA1 091213Z 08001KT 08/08 A3029 RMK A01 T00780078  RH  100%=      5-min Rain = 0
KLA1 091214Z 08000KT 08/08 A3029 RMK A01 T00760076  RH  100%=      5-min Rain = 0
KLA1 091215Z 08000KT 08/08 A3029 RMK A01 T00750075  RH  100%=      5-min Rain = 0
KLA1 091216Z 08000KT 07/07 A3029 RMK A01 T00740074  RH  100%=      5-min Rain = 0
KLA1 091217Z 05001KT 07/07 A3029 RMK A01 T00740074  RH  100%=      5-min Rain = 0
KLA1 091218Z 29002KT 07/07 A3029 RMK A01 T00740074  RH  100%=      5-min Rain = 0
KLA1 091219Z 29002KT 07/07 A3029 RMK A01 T00740074  RH  100%=      5-min Rain = 0
KLA1 091220Z 29002KT 07/07 A3029 RMK A01 T00730073  RH  100%=      5-min Rain = 0
KLA1 091221Z 29002KT 07/07 A3029 RMK A01 T00730073  RH  100%=      5-min Rain = 0
KLA1 091222Z 29003KT 07/07 A3029 RMK A01 T00730073  RH  100%=      5-min Rain = 0
KLA1 091223Z 29003KT 07/07 A3029 RMK A01 T00720072  RH  100%=      5-min Rain = 0
KLA1 091224Z 29003KT 07/07 A3029 RMK A01 T00720072  RH  100%=      5-min Rain = 0
KLA1 091225Z 29003KT 07/07 A3029 RMK A01 T00710071  RH  100%=      5-min Rain = 0
KLA1 091226Z 29003KT 07/07 A3029 RMK A01 T00710071  RH  100%=      5-min Rain = 0
KLA1 091227Z 29003KT 07/07 A3029 RMK A01 T00710071  RH  100%=      5-min Rain = 0
KLA1 091228Z 29003KT 07/07 A3029 RMK A01 T00710071  RH  100%=      5-min Rain = 0
KLA1 091229Z 29003KT 07/07 A3029 RMK A01 T00710071  RH  100%=      5-min Rain = 0
KLA1 091230Z 29003KT 07/07 A3029 RMK A01 T00710071  RH  100%=      5-min Rain = 0
KLA1 091231Z 29003KT 07/07 A3029 RMK A01 T00700070  RH  100%=      5-min Rain = 0
KLA1 091232Z 29003KT 07/07 A3029 RMK A01 T00710071  RH  100%=      5-min Rain = 0
KLA1 091233Z 29003KT 07/07 A3029 RMK A01 T00700070  RH  100%=      5-min Rain = 0
KLA1 091234Z 29003KT 07/07 A3029 RMK A01 T00700070  RH  100%=      5-min Rain = 0
KLA1 091235Z 29003KT 07/07 A3029 RMK A01 T00700070  RH  100%=      5-min Rain = 0
KLA1 091236Z 29003KT 07/07 A3029 RMK A01 T00710071  RH  100%=      5-min Rain = 0
KLA1 091237Z 29003KT 07/07 A3029 RMK A01 T00710071  RH  100%=      5-min Rain = 0
KLA1 091238Z 29003KT 07/07 A3029 RMK A01 T00710071  RH  100%=      5-min Rain = 0
KLA1 091239Z 30003KT 07/07 A3029 RMK A01 T00710071  RH  100%=      5-min Rain = 0
KLA1 091240Z 29003KT 07/07 A3029 RMK A01 T00710071  RH  100%=      5-min Rain = 0
KLA1 091241Z 30002KT 07/07 A3029 RMK A01 T00710071  RH  100%=      5-min Rain = 0
KLA1 091242Z 30002KT 07/07 A3029 RMK A01 T00710071  RH  100%=      5-min Rain = 0
KLA1 091243Z 30002KT 07/07 A3029 RMK A01 T00700070  RH  100%=      5-min Rain = 0
KLA1 091244Z 29002KT 07/07 A3029 RMK A01 T00690069  RH  100%=      5-min Rain = 0
KLA1 091245Z 30001KT 07/07 A3029 RMK A01 T00680068  RH  100%=      5-min Rain = 0
KLA1 091246Z 30000KT 07/07 A3029 RMK A01 T00680068  RH  100%=      5-min Rain = 0
KLA1 091247Z 30000KT 07/07 A3029 RMK A01 T00680068  RH  100%=      5-min Rain = 0
KLA1 091248Z 32000KT 07/07 A3029 RMK A01 T00670067  RH  100%=      5-min Rain = 0
KLA1 091249Z 00000KT 07/07 A3029 RMK A01 T00660066  RH  100%=      5-min Rain = 0
KLA1 091250Z 00000KT 07/07 A3029 RMK A01 T00660066  RH  100%=      5-min Rain = 0
KLA1 091251Z 00000KT 07/07 A3029 RMK A01 T00650065  RH  100%=      5-min Rain = 0
KLA1 091252Z 32000KT 06/06 A3029 RMK A01 T00640064  RH  100%=      5-min Rain = 0
KLA1 091253Z 32000KT 06/06 A303 RMK A01 T00640063  RH  100%=      5-min Rain = 0
KLA1 091254Z 30001KT 06/06 A303 RMK A01 T00640064  RH  100%=      5-min Rain = 0
KLA1 091255Z 29002KT 06/06 A303 RMK A01 T00620062  RH  100%=      5-min Rain = 0
KLA1 091256Z 29002KT 06/06 A303 RMK A01 T00620062  RH  100%=      5-min Rain = 0
KLA1 091257Z 29002KT 06/06 A303 RMK A01 T00610061  RH  100%=      5-min Rain = 0
KLA1 091258Z 29001KT 06/06 A303 RMK A01 T00610061  RH  100%=      5-min Rain = 0
KLA1 091259Z 29001KT 06/06 A303 RMK A01 T00600060  RH  100%=      5-min Rain = 0
KLA1 091300Z 29002KT 06/06 A303 RMK A01 T00600060  RH  100%=      5-min Rain = 0
KLA1 091301Z 28002KT 06/06 A303 RMK A01 T00600060  RH  100%=      5-min Rain = 0
KLA1 091302Z 28002KT 06/06 A303 RMK A01 T00600060  RH  100%=      5-min Rain = 0
KLA1 091303Z 28002KT 06/06 A303 RMK A01 T00600060  RH  100%=      5-min Rain = 0
KLA1 091304Z 28002KT 06/06 A303 RMK A01 T00600060  RH  100%=      5-min Rain = 0
KLA1 091305Z 28002KT 06/06 A303 RMK A01 T00600060  RH  100%=      5-min Rain = 0
KLA1 091306Z 27002KT 06/06 A303 RMK A01 T00600060  RH  100%=      5-min Rain = 0
KLA1 091307Z 27002KT 06/06 A303 RMK A01 T00590059  RH  100%=      5-min Rain = 0
KLA1 091308Z 27001KT 06/06 A303 RMK A01 T00590059  RH  100%=      5-min Rain = 0
KLA1 091309Z 27001KT 06/06 A303 RMK A01 T00590059  RH  100%=      5-min Rain = 0
KLA1 091310Z 27001KT 06/06 A303 RMK A01 T00600060  RH  100%=      5-min Rain = 0
KLA1 091311Z 27001KT 06/06 A303 RMK A01 T00600060  RH  100%=      5-min Rain = 0
KLA1 091312Z 27001KT 06/06 A303 RMK A01 T00590059  RH  100%=      5-min Rain = 0
KLA1 091313Z 27001KT 06/06 A303 RMK A01 T00590059  RH  100%=      5-min Rain = 0
KLA1 091314Z 27001KT 06/06 A303 RMK A01 T00590059  RH  100%=      5-min Rain = 0
KLA1 091315Z 27000KT 06/06 A303 RMK A01 T00590059  RH  100%=      5-min Rain = 0
KLA1 091316Z 27000KT 06/06 A303 RMK A01 T00580058  RH  100%=      5-min Rain = 0
KLA1 091317Z 00000KT 06/06 A303 RMK A01 T00580058  RH  100%=      5-min Rain = 0
KLA1 091318Z 00000KT 06/06 A303 RMK A01 T00580057  RH  100%=      5-min Rain = 0
KLA1 091319Z 00000KT 06/06 A303 RMK A01 T00570057  RH  100%=      5-min Rain = 0
KLA1 091320Z 27000KT 06/06 A303 RMK A01 T00560056  RH  100%=      5-min Rain = 0
KLA1 091321Z 27000KT 06/06 A303 RMK A01 T00560056  RH  100%=      5-min Rain = 0
KLA1 091322Z 27001KT 06/06 A303 RMK A01 T00560056  RH  100%=      5-min Rain = 0
KLA1 091323Z 27001KT 06/06 A303 RMK A01 T00560056  RH  100%=      5-min Rain = 0
KLA1 091324Z 26002KT 06/06 A303 RMK A01 T00570057  RH  100%=      5-min Rain = 0
KLA1 091325Z 26002KT 06/06 A303 RMK A01 T00570057  RH  100%=      5-min Rain = 0
KLA1 091326Z 27001KT 06/06 A303 RMK A01 T00580058  RH  100%=      5-min Rain = 0
KLA1 091327Z 27001KT 06/06 A303 RMK A01 T00580058  RH  100%=      5-min Rain = 0
KLA1 091328Z 27001KT 06/06 A303 RMK A01 T00590059  RH  100%=      5-min Rain = 0
KLA1 091329Z 28001KT 06/06 A303 RMK A01 T00590059  RH  100%=      5-min Rain = 0
KLA1 091330Z 28001KT 06/06 A303 RMK A01 T00590059  RH  100%=      5-min Rain = 0
KLA1 091331Z 28002KT 06/06 A303 RMK A01 T00590059  RH  100%=      5-min Rain = 0
KLA1 091332Z 27002KT 06/06 A303 RMK A01 T00600059  RH  100%=      5-min Rain = 0
KLA1 091333Z 27002KT 06/06 A303 RMK A01 T00600060  RH  100%=      5-min Rain = 0
KLA1 091334Z 27001KT 06/06 A303 RMK A01 T00600060  RH  100%=      5-min Rain = 0
KLA1 091335Z 28001KT 06/06 A303 RMK A01 T00600060  RH  100%=      5-min Rain = 0
KLA1 091336Z 28001KT 06/06 A303 RMK A01 T00600060  RH  100%=      5-min Rain = 0
KLA1 091337Z 00000KT 06/06 A303 RMK A01 T00590059  RH  100%=      5-min Rain = 0
KLA1 091338Z 00000KT 06/06 A303 RMK A01 T00570057  RH  100%=      5-min Rain = 0
KLA1 091339Z 28000KT 06/06 A303 RMK A01 T00560056  RH  100%=      5-min Rain = 0
KLA1 091340Z 29000KT 06/06 A303 RMK A01 T00550055  RH  100%=      5-min Rain = 0
KLA1 091341Z 29001KT 06/06 A303 RMK A01 T00550055  RH  100%=      5-min Rain = 0
KLA1 091342Z 30000KT 06/06 A303 RMK A01 T00560056  RH  100%=      5-min Rain = 0
KLA1 091343Z 30001KT 06/06 A303 RMK A01 T00560056  RH  100%=      5-min Rain = 0
KLA1 091344Z 30001KT 06/06 A303 RMK A01 T00570057  RH  100%=      5-min Rain = 0
KLA1 091345Z 30000KT 06/06 A303 RMK A01 T00570057  RH  100%=      5-min Rain = 0
KLA1 091346Z 30001KT 06/06 A303 RMK A01 T00570057  RH  100%=      5-min Rain = 0
KLA1 091347Z 00000KT 06/06 A303 RMK A01 T00580058  RH  100%=      5-min Rain = 0
KLA1 091348Z 00000KT 06/06 A303 RMK A01 T00590059  RH  100%=      5-min Rain = 0
KLA1 091349Z 30000KT 06/06 A303 RMK A01 T00600060  RH  100%=      5-min Rain = 0
KLA1 091350Z 30001KT 06/06 A303 RMK A01 T00600060  RH  100%=      5-min Rain = 0
KLA1 091351Z 00000KT 06/06 A3029 RMK A01 T00600060  RH  100%=      5-min Rain = 0
KLA1 091352Z 00000KT 06/06 A3029 RMK A01 T00610061  RH  100%=      5-min Rain = 0
KLA1 091353Z 30000KT 06/06 A3029 RMK A01 T00610061  RH  100%=      5-min Rain = 0
KLA1 091354Z 30000KT 06/06 A3029 RMK A01 T00610061  RH  100%=      5-min Rain = 0
KLA1 091355Z 30000KT 06/06 A303 RMK A01 T00610061  RH  100%=      5-min Rain = 0
KLA1 091356Z 00000KT 06/06 A303 RMK A01 T00620062  RH  100%=      5-min Rain = 0
KLA1 091357Z 32000KT 06/06 A303 RMK A01 T00630063  RH  100%=      5-min Rain = 0
KLA1 091358Z 33001KT 06/06 A303 RMK A01 T00640064  RH  100%=      5-min Rain = 0
KLA1 091359Z 34001KT 07/07 A303 RMK A01 T00650065  RH  100%=      5-min Rain = 0
KLA1 091400Z 34000KT 07/07 A303 RMK A01 T00650065  RH  100%=      5-min Rain = 0
KLA1 091401Z 34001KT 07/07 A303 RMK A01 T00660066  RH  100%=      5-min Rain = 0
KLA1 091402Z 34001KT 07/07 A303 RMK A01 T00670067  RH  100%=      5-min Rain = 0
KLA1 091403Z 34001KT 07/07 A303 RMK A01 T00660066  RH  100%=      5-min Rain = 0
KLA1 091404Z 34001KT 07/07 A303 RMK A01 T00670067  RH  100%=      5-min Rain = 0
KLA1 091405Z 34001KT 07/07 A303 RMK A01 T00670067  RH  100%=      5-min Rain = 0
KLA1 091406Z 34001KT 07/07 A303 RMK A01 T00670067  RH  100%=      5-min Rain = 0
KLA1 091407Z 34000KT 07/07 A303 RMK A01 T00670067  RH  100%=      5-min Rain = 0
KLA1 091408Z 34000KT 07/07 A303 RMK A01 T00670067  RH  100%=      5-min Rain = 0
KLA1 091409Z 35000KT 07/07 A303 RMK A01 T00670067  RH  100%=      5-min Rain = 0
KLA1 091410Z 35001KT 07/07 A303 RMK A01 T00690069  RH  100%=      5-min Rain = 0
KLA1 091411Z 35000KT 07/07 A303 RMK A01 T00690069  RH  100%=      5-min Rain = 0
KLA1 091412Z 35000KT 07/07 A303 RMK A01 T00700070  RH  100%=      5-min Rain = 0
KLA1 091413Z 00000KT 07/07 A303 RMK A01 T00710071  RH  100%=      5-min Rain = 0
KLA1 091414Z 00000KT 07/07 A3031 RMK A01 T00730073  RH  100%=      5-min Rain = 0
KLA1 091415Z 00000KT 08/08 A3031 RMK A01 T00750075  RH  100%=      5-min Rain = 0
KLA1 091416Z 00000KT 08/08 A3031 RMK A01 T00760076  RH  100%=      5-min Rain = 0
KLA1 091417Z 00000KT 08/08 A3031 RMK A01 T00770077  RH  100%=      5-min Rain = 0
KLA1 091418Z 00000KT 08/08 A3031 RMK A01 T00790079  RH  100%=      5-min Rain = 0
KLA1 091419Z 00000KT 08/08 A3031 RMK A01 T00800080  RH  100%=      5-min Rain = 0
KLA1 091420Z 00000KT 08/08 A3031 RMK A01 T00800080  RH  100%=      5-min Rain = 0
KLA1 091421Z 00000KT 08/08 A3031 RMK A01 T00800080  RH  100%=      5-min Rain = 0
KLA1 091422Z 35000KT 08/08 A3031 RMK A01 T00800080  RH  100%=      5-min Rain = 0
KLA1 091423Z 00000KT 08/08 A3031 RMK A01 T00810081  RH  100%=      5-min Rain = 0
KLA1 091424Z 00000KT 08/08 A3031 RMK A01 T00810081  RH  100%=      5-min Rain = 0
KLA1 091425Z 00000KT 08/08 A3031 RMK A01 T00820082  RH  100%=      5-min Rain = 0
KLA1 091426Z 25000KT 08/08 A3031 RMK A01 T00830083  RH  100%=      5-min Rain = 0
KLA1 091427Z 25001KT 08/08 A3031 RMK A01 T00830083  RH  100%=      5-min Rain = 0
KLA1 091428Z 25000KT 08/08 A3031 RMK A01 T00820082  RH  100%=      5-min Rain = 0
KLA1 091429Z 25000KT 08/08 A3031 RMK A01 T00820082  RH  100%=      5-min Rain = 0
KLA1 091430Z 25001KT 08/08 A3031 RMK A01 T00820082  RH  100%=      5-min Rain = 0
KLA1 091431Z 25000KT 08/08 A3031 RMK A01 T00820082  RH  100%=      5-min Rain = 0
KLA1 091432Z 25001KT 08/08 A3031 RMK A01 T00830083  RH  100%=      5-min Rain = 0
KLA1 091433Z 26001KT 08/08 A3031 RMK A01 T00830083  RH  100%=      5-min Rain = 0
KLA1 091434Z 25000KT 08/08 A3031 RMK A01 T00840084  RH  100%=      5-min Rain = 0
KLA1 091435Z 24001KT 09/09 A3031 RMK A01 T00850085  RH  100%=      5-min Rain = 0
KLA1 091436Z 24000KT 09/09 A3031 RMK A01 T00860086  RH  100%=      5-min Rain = 0
KLA1 091437Z 24001KT 09/09 A3031 RMK A01 T00860086  RH  100%=      5-min Rain = 0
KLA1 091438Z 23001KT 09/09 A3031 RMK A01 T00870087  RH  100%=      5-min Rain = 0
KLA1 091439Z 23001KT 09/09 A3031 RMK A01 T00880088  RH  100%=      5-min Rain = 0
KLA1 091440Z 23000KT 09/09 A3031 RMK A01 T00880088  RH  100%=      5-min Rain = 0
KLA1 091441Z 24000KT 09/09 A3031 RMK A01 T00890089  RH  100%=      5-min Rain = 0
KLA1 091442Z 00000KT 09/09 A3031 RMK A01 T00890089  RH  100%=      5-min Rain = 0
KLA1 091443Z 24000KT 09/09 A3031 RMK A01 T00890089  RH  100%=      5-min Rain = 0
KLA1 091444Z 24000KT 09/09 A3031 RMK A01 T00890089  RH  100%=      5-min Rain = 0
KLA1 091445Z 25000KT 09/09 A3031 RMK A01 T00890089  RH  100%=      5-min Rain = 0
KLA1 091446Z 26000KT 09/09 A3031 RMK A01 T00900090  RH  100%=      5-min Rain = 0
KLA1 091447Z 26000KT 09/09 A3031 RMK A01 T00920092  RH  100%=      5-min Rain = 0
KLA1 091448Z 25001KT 09/09 A3031 RMK A01 T00930093  RH  100%=      5-min Rain = 0
KLA1 091449Z 21001KT 09/09 A3031 RMK A01 T00930093  RH  100%=      5-min Rain = 0
KLA1 091450Z 21001KT 09/09 A3031 RMK A01 T00930092  RH  099%=      5-min Rain = 0
KLA1 091451Z 00000KT 09/09 A3032 RMK A01 T00930091  RH  099%=      5-min Rain = 0
KLA1 091452Z 22000KT 10/09 A3032 RMK A01 T00950093  RH  098%=      5-min Rain = 0
KLA1 091453Z 22000KT 10/09 A3032 RMK A01 T00970094  RH  098%=      5-min Rain = 0
KLA1 091454Z 00000KT 10/09 A3032 RMK A01 T00980092  RH  096%=      5-min Rain = 0
KLA1 091455Z 24000KT 10/09 A3032 RMK A01 T00980091  RH  096%=      5-min Rain = 0
KLA1 091456Z 24000KT 10/09 A3032 RMK A01 T00980090  RH  095%=      5-min Rain = 0
KLA1 091457Z 24000KT 10/09 A3032 RMK A01 T00980090  RH  094%=      5-min Rain = 0
KLA1 091458Z 24000KT 10/09 A3032 RMK A01 T00990089  RH  094%=      5-min Rain = 0
KLA1 091459Z 20001KT 10/09 A3032 RMK A01 T01000090  RH  093%=      5-min Rain = 0
KLA1 091500Z 21001KT 10/09 A3032 RMK A01 T01000088  RH  092%=      5-min Rain = 0
KLA1 091501Z 23000KT 10/09 A3032 RMK A01 T01000088  RH  092%=      5-min Rain = 0
KLA1 091502Z 23000KT 10/09 A3032 RMK A01 T01000087  RH  091%=      5-min Rain = 0
KLA1 091503Z 00000KT 10/09 A3032 RMK A01 T01020089  RH  092%=      5-min Rain = 0
KLA1 091504Z 00000KT 10/09 A3032 RMK A01 T01030089  RH  091%=      5-min Rain = 0
KLA1 091505Z 24000KT 10/09 A3032 RMK A01 T01040089  RH  090%=      5-min Rain = 0
KLA1 091506Z 15001KT 11/09 A3032 RMK A01 T01060090  RH  090%=      5-min Rain = 0
KLA1 091507Z 15000KT 11/09 A3032 RMK A01 T01070088  RH  088%=      5-min Rain = 0
KLA1 091508Z 15000KT 11/09 A3032 RMK A01 T01080088  RH  088%=      5-min Rain = 0
KLA1 091509Z 16000KT 11/09 A3032 RMK A01 T01100090  RH  087%=      5-min Rain = 0
KLA1 091510Z 23000KT 11/09 A3032 RMK A01 T01120089  RH  086%=      5-min Rain = 0
KLA1 091511Z 23001KT 11/09 A3032 RMK A01 T01130088  RH  085%=      5-min Rain = 0
KLA1 091512Z 23000KT 11/09 A3032 RMK A01 T01130088  RH  084%=      5-min Rain = 0
KLA1 091513Z 00000KT 11/09 A3032 RMK A01 T01130089  RH  085%=      5-min Rain = 0
KLA1 091514Z 00000KT 12/09 A3032 RMK A01 T01150091  RH  085%=      5-min Rain = 0
KLA1 091515Z 20002KT 12/09 A3032 RMK A01 T01170092  RH  084%=      5-min Rain = 0
KLA1 091516Z 19002KT 12/09 A3032 RMK A01 T01180089  RH  082%=      5-min Rain = 0
KLA1 091517Z 13001KT 12/09 A3032 RMK A01 T01170088  RH  082%=      5-min Rain = 0
KLA1 091518Z 16002KT 12/09 A3032 RMK A01 T01170089  RH  083%=      5-min Rain = 0
KLA1 091519Z 17002KT 12/09 A3032 RMK A01 T01170087  RH  082%=      5-min Rain = 0
KLA1 091520Z 18002KT 12/09 A3032 RMK A01 T01180087  RH  081%=      5-min Rain = 0
KLA1 091521Z 15002KT 12/09 A3032 RMK A01 T01180087  RH  081%=      5-min Rain = 0
KLA1 091522Z 15003KT 12/09 A3032 RMK A01 T01190088  RH  081%=      5-min Rain = 0
KLA1 091523Z 15002KT 12/09 A3032 RMK A01 T01200087  RH  080%=      5-min Rain = 0
KLA1 091524Z 17001KT 12/09 A3032 RMK A01 T01210087  RH  080%=      5-min Rain = 0
KLA1 091525Z 17003KT 12/09 A3032 RMK A01 T01220088  RH  080%=      5-min Rain = 0
KLA1 091526Z 17002KT 12/09 A3032 RMK A01 T01230087  RH  079%=      5-min Rain = 0
KLA1 091527Z 21001KT 12/09 A3032 RMK A01 T01230088  RH  079%=      5-min Rain = 0
KLA1 091528Z 20001KT 12/09 A3032 RMK A01 T01220088  RH  080%=      5-min Rain = 0
KLA1 091529Z 20002KT 12/09 A3032 RMK A01 T01230090  RH  080%=      5-min Rain = 0
KLA1 091530Z 18002KT 12/09 A3032 RMK A01 T01230088  RH  079%=      5-min Rain = 0
KLA1 091531Z 16004KT 12/09 A3032 RMK A01 T01230088  RH  079%=      5-min Rain = 0
KLA1 091532Z 16003KT 12/09 A3032 RMK A01 T01220089  RH  080%=      5-min Rain = 0
KLA1 091533Z 18003KT 12/09 A3032 RMK A01 T01220089  RH  080%=      5-min Rain = 0
KLA1 091534Z 16001KT 12/09 A3032 RMK A01 T01220087  RH  079%=      5-min Rain = 0
KLA1 091535Z 20001KT 12/09 A3032 RMK A01 T01220088  RH  079%=      5-min Rain = 0
KLA1 091536Z 20002KT 12/09 A3032 RMK A01 T01230088  RH  079%=      5-min Rain = 0
KLA1 091537Z 18002KT 12/09 A3032 RMK A01 T01230090  RH  080%=      5-min Rain = 0
KLA1 091538Z 15002KT 12/09 A3032 RMK A01 T01230089  RH  080%=      5-min Rain = 0
KLA1 091539Z 12002KT 12/09 A3032 RMK A01 T01240089  RH  079%=      5-min Rain = 0
KLA1 091540Z 13004KT 13/09 A3032 RMK A01 T01260092  RH  080%=      5-min Rain = 0
KLA1 091541Z 13004KT 13/09 A3032 RMK A01 T01270091  RH  078%=      5-min Rain = 0
KLA1 091542Z 16003KT 13/09 A3032 RMK A01 T01260088  RH  078%=      5-min Rain = 0
KLA1 091543Z 14002KT 13/09 A3032 RMK A01 T01250090  RH  079%=      5-min Rain = 0
KLA1 091544Z 14002KT 13/09 A3032 RMK A01 T01250089  RH  079%=      5-min Rain = 0
KLA1 091545Z 13001KT 13/09 A3031 RMK A01 T01250090  RH  079%=      5-min Rain = 0
KLA1 091546Z 11004KT 13/09 A3032 RMK A01 T01270092  RH  079%=      5-min Rain = 0
KLA1 091547Z 11004KT 13/09 A3032 RMK A01 T01280090  RH  078%=      5-min Rain = 0
KLA1 091548Z 10003KT 13/09 A3032 RMK A01 T01260089  RH  078%=      5-min Rain = 0
KLA1 091549Z 12003KT 13/09 A3032 RMK A01 T01250088  RH  078%=      5-min Rain = 0
KLA1 091550Z 17002KT 13/09 A3032 RMK A01 T01250090  RH  079%=      5-min Rain = 0
KLA1 091551Z 17002KT 13/09 A3032 RMK A01 T01250092  RH  080%=      5-min Rain = 0
KLA1 091552Z 15001KT 13/09 A3032 RMK A01 T01260091  RH  080%=      5-min Rain = 0
KLA1 091553Z 14003KT 13/09 A3032 RMK A01 T01280094  RH  080%=      5-min Rain = 0
KLA1 091554Z 14003KT 13/09 A3032 RMK A01 T01290092  RH  078%=      5-min Rain = 0
KLA1 091555Z 13003KT 13/09 A3031 RMK A01 T01290090  RH  077%=      5-min Rain = 0
KLA1 091556Z 13003KT 13/09 A3031 RMK A01 T01300092  RH  078%=      5-min Rain = 0
KLA1 091557Z 11002KT 13/09 A3031 RMK A01 T01300091  RH  077%=      5-min Rain = 0
KLA1 091558Z 14003KT 13/09 A3031 RMK A01 T01310092  RH  077%=      5-min Rain = 0
KLA1 091559Z 16005KT 13/09 A3031 RMK A01 T01320093  RH  077%=      5-min Rain = 0
KLA1 091600Z 11004KT 13/09 A3031 RMK A01 T01330092  RH  076%=      5-min Rain = 0
KLA1 091601Z 08002KT 13/09 A3031 RMK A01 T01310091  RH  076%=      5-min Rain = 0
KLA1 091602Z 08002KT 13/09 A3031 RMK A01 T01300090  RH  077%=      5-min Rain = 0
KLA1 091603Z 08002KT 13/09 A3031 RMK A01 T01290090  RH  077%=      5-min Rain = 0
KLA1 091604Z 09001KT 13/09 A3031 RMK A01 T01300092  RH  078%=      5-min Rain = 0
KLA1 091605Z 07001KT 13/09 A3031 RMK A01 T01320092  RH  077%=      5-min Rain = 0
KLA1 091606Z 15003KT 13/09 A3031 RMK A01 T01320092  RH  077%=      5-min Rain = 0
KLA1 091607Z 19003KT 13/09 A3031 RMK A01 T01330093  RH  076%=      5-min Rain = 0
KLA1 091608Z 20002KT 13/09 A3031 RMK A01 T01340093  RH  077%=      5-min Rain = 0
KLA1 091609Z 19000KT 13/09 A3031 RMK A01 T01340094  RH  077%=      5-min Rain = 0
KLA1 091610Z 16001KT 14/10 A3031 RMK A01 T01350095  RH  076%=      5-min Rain = 0
KLA1 091611Z 15003KT 14/10 A3031 RMK A01 T01380097  RH  076%=      5-min Rain = 0
KLA1 091612Z 20002KT 14/09 A3031 RMK A01 T01390094  RH  074%=      5-min Rain = 0
KLA1 091613Z 19003KT 14/09 A3031 RMK A01 T01390093  RH  074%=      5-min Rain = 0
KLA1 091614Z 17001KT 14/09 A3031 RMK A01 T01370092  RH  074%=      5-min Rain = 0
KLA1 091615Z 00000KT 14/09 A3031 RMK A01 T01370094  RH  076%=      5-min Rain = 0
KLA1 091616Z 13000KT 14/09 A3031 RMK A01 T01360093  RH  075%=      5-min Rain = 0
KLA1 091617Z 14003KT 14/10 A3031 RMK A01 T01380095  RH  076%=      5-min Rain = 0
KLA1 091618Z 16002KT 14/09 A3031 RMK A01 T01390094  RH  074%=      5-min Rain = 0
KLA1 091619Z 21001KT 14/09 A3031 RMK A01 T01390093  RH  074%=      5-min Rain = 0
KLA1 091620Z 14002KT 14/10 A3031 RMK A01 T01400095  RH  074%=      5-min Rain = 0
KLA1 091621Z 16003KT 14/10 A3031 RMK A01 T01410097  RH  075%=      5-min Rain = 0
KLA1 091622Z 17003KT 14/10 A3031 RMK A01 T01430096  RH  073%=      5-min Rain = 0
KLA1 091623Z 18002KT 14/09 A3031 RMK A01 T01420094  RH  073%=      5-min Rain = 0
KLA1 091624Z 20002KT 14/09 A3031 RMK A01 T01400093  RH  073%=      5-min Rain = 0
KLA1 091625Z 22002KT 14/09 A3031 RMK A01 T01400094  RH  074%=      5-min Rain = 0
KLA1 091626Z 23000KT 14/10 A3031 RMK A01 T01400095  RH  074%=      5-min Rain = 0
KLA1 091627Z 15003KT 14/10 A3031 RMK A01 T01410098  RH  075%=      5-min Rain = 0
KLA1 091628Z 17002KT 14/10 A3031 RMK A01 T01430096  RH  073%=      5-min Rain = 0
KLA1 091629Z 21003KT 15/10 A3031 RMK A01 T01450097  RH  073%=      5-min Rain = 0
KLA1 091630Z 22005KT 15/10 A3031 RMK A01 T01460097  RH  072%=      5-min Rain = 0
KLA1 091631Z 19004KT 15/10 A3031 RMK A01 T01460097  RH  072%=      5-min Rain = 0
KLA1 091632Z 18004KT 15/10 A3031 RMK A01 T01450095  RH  072%=      5-min Rain = 0
KLA1 091633Z 17004KT 14/10 A3031 RMK A01 T01440096  RH  073%=      5-min Rain = 0
KLA1 091634Z 16003KT 14/10 A3031 RMK A01 T01440096  RH  073%=      5-min Rain = 0
KLA1 091635Z 16005KT 15/10 A3031 RMK A01 T01450097  RH  073%=      5-min Rain = 0
KLA1 091636Z 14004KT 15/10 A3031 RMK A01 T01470098  RH  072%=      5-min Rain = 0
KLA1 091637Z 14005KT 15/10 A3031 RMK A01 T01490098  RH  072%=      5-min Rain = 0
KLA1 091638Z 12007KT 15/10 A3031 RMK A01 T01500096  RH  070%=      5-min Rain = 0
KLA1 091639Z 12008KT 15/10 A3031 RMK A01 T01490095  RH  070%=      5-min Rain = 0
KLA1 091640Z 16007KT 15/10 A3031 RMK A01 T01470096  RH  071%=      5-min Rain = 0
KLA1 091641Z 16004KT 15/10 A3031 RMK A01 T01470096  RH  072%=      5-min Rain = 0
KLA1 091642Z 16005KT 15/10 A3031 RMK A01 T01470096  RH  071%=      5-min Rain = 0
KLA1 091643Z 17004KT 15/10 A3031 RMK A01 T01460095  RH  071%=      5-min Rain = 0
KLA1 091644Z 16002KT 15/10 A3031 RMK A01 T01470096  RH  072%=      5-min Rain = 0
KLA1 091645Z 14003KT 15/10 A3031 RMK A01 T01470097  RH  072%=      5-min Rain = 0
KLA1 091646Z 14006KT 15/10 A3031 RMK A01 T01480097  RH  072%=      5-min Rain = 0
KLA1 091647Z 14006KT 15/10 A3031 RMK A01 T01500098  RH  071%=      5-min Rain = 0
KLA1 091648Z 15003KT 15/09 A3031 RMK A01 T01500094  RH  069%=      5-min Rain = 0
KLA1 091649Z 13002KT 15/10 A3031 RMK A01 T01490098  RH  072%=      5-min Rain = 0
KLA1 091650Z 14005KT 15/10 A3031 RMK A01 T01500097  RH  070%=      5-min Rain = 0
KLA1 091651Z 13003KT 15/10 A3031 RMK A01 T01500096  RH  070%=      5-min Rain = 0
KLA1 091652Z 15004KT 15/10 A3031 RMK A01 T01490098  RH  071%=      5-min Rain = 0
KLA1 091653Z 16006KT 15/10 A3031 RMK A01 T01510097  RH  070%=      5-min Rain = 0
KLA1 091654Z 16005KT 15/10 A303 RMK A01 T01510096  RH  070%=      5-min Rain = 0
KLA1 091655Z 17005KT 15/10 A303 RMK A01 T01500096  RH  070%=      5-min Rain = 0
KLA1 091656Z 20003KT 15/10 A303 RMK A01 T01510099  RH  071%=      5-min Rain = 0
KLA1 091657Z 15008KT 15/10 A303 RMK A01 T01520098  RH  070%=      5-min Rain = 0
KLA1 091658Z 16006KT 15/10 A303 RMK A01 T01530098  RH  070%=      5-min Rain = 0
KLA1 091659Z 14005KT 16/10 A303 RMK A01 T01550100  RH  070%=      5-min Rain = 0
KLA1 091700Z 14003KT 15/10 A303 RMK A01 T01540096  RH  068%=      5-min Rain = 0
KLA1 091701Z 15003KT 15/10 A303 RMK A01 T01520095  RH  069%=      5-min Rain = 0
KLA1 091702Z 14005KT 15/10 A303 RMK A01 T01520100  RH  071%=      5-min Rain = 0
KLA1 091703Z 16006KT 16/10 A303 RMK A01 T01550098  RH  069%=      5-min Rain = 0
KLA1 091704Z 17005KT 16/10 A303 RMK A01 T01550099  RH  069%=      5-min Rain = 0
KLA1 091705Z 13005KT 16/10 A303 RMK A01 T01550098  RH  069%=      5-min Rain = 0
KLA1 091706Z 16005KT 16/10 A303 RMK A01 T01550097  RH  069%=      5-min Rain = 0
KLA1 091707Z 18005KT 15/10 A303 RMK A01 T01540097  RH  069%=      5-min Rain = 0
KLA1 091708Z 16005KT 15/10 A303 RMK A01 T01530098  RH  070%=      5-min Rain = 0
KLA1 091709Z 16003KT 15/10 A303 RMK A01 T01530097  RH  069%=      5-min Rain = 0
KLA1 091710Z 17002KT 15/10 A303 RMK A01 T01530095  RH  068%=      5-min Rain = 0
KLA1 091711Z 17004KT 15/10 A303 RMK A01 T01530098  RH  069%=      5-min Rain = 0
KLA1 091712Z 16002KT 16/10 A303 RMK A01 T01550097  RH  068%=      5-min Rain = 0
KLA1 091713Z 10000KT 16/10 A303 RMK A01 T01550095  RH  068%=      5-min Rain = 0
KLA1 091714Z 18003KT 16/10 A3029 RMK A01 T01550098  RH  069%=      5-min Rain = 0
KLA1 091715Z 17005KT 16/10 A3029 RMK A01 T01560098  RH  068%=      5-min Rain = 0
KLA1 091716Z 15003KT 16/10 A3029 RMK A01 T01560098  RH  068%=      5-min Rain = 0
KLA1 091717Z 17002KT 16/10 A3029 RMK A01 T01570099  RH  068%=      5-min Rain = 0
KLA1 091718Z 16001KT 16/10 A3029 RMK A01 T01570098  RH  068%=      5-min Rain = 0
KLA1 091719Z 12001KT 16/10 A3029 RMK A01 T01570097  RH  067%=      5-min Rain = 0
KLA1 091720Z 08001KT 16/10 A3029 RMK A01 T01580096  RH  067%=      5-min Rain = 0
KLA1 091721Z 10001KT 16/10 A3029 RMK A01 T01580096  RH  067%=      5-min Rain = 0
KLA1 091722Z 17004KT 16/10 A3029 RMK A01 T01580100  RH  068%=      5-min Rain = 0
KLA1 091723Z 16005KT 16/10 A3029 RMK A01 T01610103  RH  068%=      5-min Rain = 0
KLA1 091724Z 19004KT 16/10 A3029 RMK A01 T01620100  RH  067%=      5-min Rain = 0
KLA1 091725Z 18003KT 16/10 A3029 RMK A01 T01610101  RH  067%=      5-min Rain = 0
KLA1 091726Z 21001KT 16/10 A3029 RMK A01 T01600098  RH  067%=      5-min Rain = 0
KLA1 091727Z 19003KT 16/10 A3029 RMK A01 T01590102  RH  069%=      5-min Rain = 0
KLA1 091728Z 20003KT 16/10 A3029 RMK A01 T01610100  RH  067%=      5-min Rain = 0
KLA1 091729Z 20001KT 16/10 A3029 RMK A01 T01600098  RH  067%=      5-min Rain = 0
KLA1 091730Z 12003KT 16/10 A3029 RMK A01 T01590100  RH  068%=      5-min Rain = 0
KLA1 091731Z 12003KT 16/10 A3029 RMK A01 T01600101  RH  068%=      5-min Rain = 0
KLA1 091732Z 11002KT 16/10 A3029 RMK A01 T01620101  RH  067%=      5-min Rain = 0
KLA1 091733Z 08004KT 16/10 A3028 RMK A01 T01620100  RH  066%=      5-min Rain = 0
KLA1 091734Z 09002KT 16/10 A3028 RMK A01 T01630099  RH  066%=      5-min Rain = 0
KLA1 091735Z 08003KT 16/10 A3028 RMK A01 T01620100  RH  067%=      5-min Rain = 0
KLA1 091736Z 10004KT 16/10 A3028 RMK A01 T01630101  RH  067%=      5-min Rain = 0
KLA1 091737Z 21005KT 17/10 A3028 RMK A01 T01650104  RH  067%=      5-min Rain = 0
KLA1 091738Z 17005KT 17/10 A3028 RMK A01 T01660101  RH  065%=      5-min Rain = 0
KLA1 091739Z 17003KT 16/10 A3028 RMK A01 T01640102  RH  067%=      5-min Rain = 0
KLA1 091740Z 18002KT 16/10 A3028 RMK A01 T01640102  RH  067%=      5-min Rain = 0
KLA1 091741Z 14003KT 17/10 A3028 RMK A01 T01650103  RH  067%=      5-min Rain = 0
KLA1 091742Z 14002KT 17/10 A3028 RMK A01 T01660103  RH  067%=      5-min Rain = 0
KLA1 091743Z 11005KT 17/10 A3028 RMK A01 T01660103  RH  066%=      5-min Rain = 0
KLA1 091744Z 12005KT 17/10 A3028 RMK A01 T01670102  RH  066%=      5-min Rain = 0
KLA1 091745Z 11007KT 17/10 A3028 RMK A01 T01670102  RH  065%=      5-min Rain = 0
KLA1 091746Z 11007KT 17/10 A3028 RMK A01 T01660102  RH  066%=      5-min Rain = 0
KLA1 091747Z 11005KT 17/10 A3028 RMK A01 T01650101  RH  066%=      5-min Rain = 0
KLA1 091748Z 11002KT 16/10 A3028 RMK A01 T01640100  RH  066%=      5-min Rain = 0
KLA1 091749Z 08003KT 16/10 A3028 RMK A01 T01630101  RH  067%=      5-min Rain = 0
KLA1 091750Z 19002KT 16/10 A3027 RMK A01 T01640101  RH  066%=      5-min Rain = 0
KLA1 091751Z 21002KT 16/10 A3027 RMK A01 T01640101  RH  066%=      5-min Rain = 0
KLA1 091752Z 18000KT 16/10 A3027 RMK A01 T01640103  RH  067%=      5-min Rain = 0
KLA1 091753Z 13003KT 17/10 A3027 RMK A01 T01650104  RH  067%=      5-min Rain = 0
KLA1 091754Z 15005KT 17/10 A3027 RMK A01 T01660103  RH  066%=      5-min Rain = 0
KLA1 091755Z 13004KT 17/10 A3027 RMK A01 T01670103  RH  066%=      5-min Rain = 0
KLA1 091756Z 15004KT 17/10 A3027 RMK A01 T01670103  RH  066%=      5-min Rain = 0
KLA1 091757Z 17005KT 17/10 A3027 RMK A01 T01670103  RH  066%=      5-min Rain = 0
KLA1 091758Z 17005KT 17/11 A3027 RMK A01 T01690105  RH  066%=      5-min Rain = 0
KLA1 091759Z 17002KT 17/10 A3027 RMK A01 T01690102  RH  064%=      5-min Rain = 0
KLA1 091800Z 14003KT 17/10 A3027 RMK A01 T01670102  RH  065%=      5-min Rain = 0
KLA1 091801Z 13005KT 17/10 A3027 RMK A01 T01670102  RH  066%=      5-min Rain = 0
KLA1 091802Z 12004KT 17/10 A3027 RMK A01 T01690104  RH  066%=      5-min Rain = 0
KLA1 091803Z 11005KT 17/10 A3027 RMK A01 T01700103  RH  065%=      5-min Rain = 0
KLA1 091804Z 08002KT 17/10 A3027 RMK A01 T01690101  RH  064%=      5-min Rain = 0
KLA1 091805Z 06002KT 17/10 A3026 RMK A01 T01680102  RH  065%=      5-min Rain = 0
KLA1 091806Z 07003KT 17/10 A3026 RMK A01 T01680102  RH  065%=      5-min Rain = 0
KLA1 091807Z 10006KT 17/10 A3026 RMK A01 T01690102  RH  065%=      5-min Rain = 0
KLA1 091808Z 08005KT 17/10 A3026 RMK A01 T01690101  RH  064%=      5-min Rain = 0
KLA1 091809Z 11008KT 17/10 A3026 RMK A01 T01690102  RH  065%=      5-min Rain = 0
KLA1 091810Z 13005KT 17/11 A3026 RMK A01 T01720105  RH  065%=      5-min Rain = 0
KLA1 091811Z 12004KT 17/10 A3026 RMK A01 T01740104  RH  064%=      5-min Rain = 0
KLA1 091812Z 16004KT 17/10 A3026 RMK A01 T01730101  RH  062%=      5-min Rain = 0
KLA1 091813Z 13001KT 17/10 A3026 RMK A01 T01710101  RH  063%=      5-min Rain = 0
KLA1 091814Z 14004KT 17/10 A3026 RMK A01 T01710103  RH  064%=      5-min Rain = 0
KLA1 091815Z 12003KT 17/10 A3026 RMK A01 T01720104  RH  064%=      5-min Rain = 0
KLA1 091816Z 13003KT 17/11 A3026 RMK A01 T01740105  RH  064%=      5-min Rain = 0
KLA1 091817Z 17005KT 18/10 A3025 RMK A01 T01760103  RH  062%=      5-min Rain = 0
KLA1 091818Z 17003KT 18/10 A3025 RMK A01 T01750103  RH  063%=      5-min Rain = 0
KLA1 091819Z 22002KT 17/10 A3025 RMK A01 T01740103  RH  063%=      5-min Rain = 0
KLA1 091820Z 24002KT 17/10 A3025 RMK A01 T01740103  RH  063%=      5-min Rain = 0
KLA1 091821Z 15003KT 17/10 A3025 RMK A01 T01730103  RH  063%=      5-min Rain = 0
KLA1 091822Z 16005KT 18/11 A3025 RMK A01 T01750108  RH  064%=      5-min Rain = 0
KLA1 091823Z 15005KT 18/11 A3025 RMK A01 T01780105  RH  062%=      5-min Rain = 0
KLA1 091824Z 17004KT 18/10 A3025 RMK A01 T01770102  RH  061%=      5-min Rain = 0
KLA1 091825Z 13005KT 18/11 A3025 RMK A01 T01760105  RH  063%=      5-min Rain = 0
KLA1 091826Z 14004KT 18/10 A3025 RMK A01 T01760102  RH  062%=      5-min Rain = 0
KLA1 091827Z 13004KT 18/10 A3025 RMK A01 T01750103  RH  063%=      5-min Rain = 0
KLA1 091828Z 13004KT 17/10 A3025 RMK A01 T01740103  RH  063%=      5-min Rain = 0
KLA1 091829Z 14005KT 17/10 A3025 RMK A01 T01740103  RH  063%=      5-min Rain = 0
KLA1 091830Z 13004KT 18/10 A3025 RMK A01 T01750103  RH  062%=      5-min Rain = 0
KLA1 091831Z 12003KT 18/10 A3025 RMK A01 T01750102  RH  062%=      5-min Rain = 0
KLA1 091832Z 12003KT 17/10 A3025 RMK A01 T01740101  RH  062%=      5-min Rain = 0
KLA1 091833Z 18001KT 17/10 A3025 RMK A01 T01740104  RH  063%=      5-min Rain = 0
KLA1 091834Z 22003KT 18/10 A3025 RMK A01 T01750103  RH  063%=      5-min Rain = 0
KLA1 091835Z 21001KT 18/10 A3025 RMK A01 T01750102  RH  062%=      5-min Rain = 0
KLA1 091836Z 11002KT 18/10 A3025 RMK A01 T01760103  RH  062%=      5-min Rain = 0
KLA1 091837Z 07003KT 18/10 A3025 RMK A01 T01760102  RH  062%=      5-min Rain = 0
KLA1 091838Z 08001KT 18/10 A3025 RMK A01 T01760104  RH  062%=      5-min Rain = 0
KLA1 091839Z 11004KT 18/10 A3025 RMK A01 T01780103  RH  062%=      5-min Rain = 0
KLA1 091840Z 10003KT 18/10 A3025 RMK A01 T01780103  RH  061%=      5-min Rain = 0
KLA1 091841Z 13003KT 18/11 A3024 RMK A01 T01770105  RH  063%=      5-min Rain = 0
KLA1 091842Z 15002KT 18/10 A3024 RMK A01 T01780104  RH  062%=      5-min Rain = 0
KLA1 091843Z 19003KT 18/11 A3024 RMK A01 T01790107  RH  063%=      5-min Rain = 0
KLA1 091844Z 15002KT 18/11 A3024 RMK A01 T01810105  RH  061%=      5-min Rain = 0
KLA1 091845Z 14003KT 18/11 A3024 RMK A01 T01830107  RH  061%=      5-min Rain = 0
KLA1 091846Z 14003KT 18/10 A3024 RMK A01 T01830104  RH  060%=      5-min Rain = 0
KLA1 091847Z 15004KT 18/10 A3024 RMK A01 T01820104  RH  061%=      5-min Rain = 0
KLA1 091848Z 14006KT 18/10 A3024 RMK A01 T01810104  RH  061%=      5-min Rain = 0
KLA1 091849Z 13005KT 18/10 A3024 RMK A01 T01810104  RH  061%=      5-min Rain = 0
KLA1 091850Z 14002KT 18/10 A3024 RMK A01 T01800103  RH  060%=      5-min Rain = 0
KLA1 091851Z 10001KT 18/10 A3024 RMK A01 T01800104  RH  061%=      5-min Rain = 0
KLA1 091852Z 16003KT 18/11 A3024 RMK A01 T01810106  RH  062%=      5-min Rain = 0
KLA1 091853Z 16002KT 18/11 A3024 RMK A01 T01820105  RH  060%=      5-min Rain = 0
KLA1 091854Z 19002KT 18/11 A3024 RMK A01 T01830105  RH  060%=      5-min Rain = 0
KLA1 091855Z 10002KT 18/11 A3024 RMK A01 T01820105  RH  061%=      5-min Rain = 0
KLA1 091856Z 09001KT 18/10 A3023 RMK A01 T01820104  RH  060%=      5-min Rain = 0
KLA1 091857Z 20001G6KT 18/10 A3023 RMK A01 T01830104  RH  060%=      5-min Rain = 0
KLA1 091858Z 17005KT 18/11 A3023 RMK A01 T01840107  RH  061%=      5-min Rain = 0
KLA1 091859Z 14005KT 19/11 A3023 RMK A01 T01850108  RH  061%=      5-min Rain = 0
KLA1 091900Z 16008KT 19/11 A3023 RMK A01 T01880111  RH  061%=      5-min Rain = 0
KLA1 091901Z 18007KT 19/11 A3023 RMK A01 T01890109  RH  060%=      5-min Rain = 0
KLA1 091902Z 17006KT 19/11 A3023 RMK A01 T01900110  RH  060%=      5-min Rain = 0
KLA1 091903Z 15006KT 19/11 A3023 RMK A01 T01910109  RH  059%=      5-min Rain = 0
KLA1 091904Z 14006KT 19/11 A3023 RMK A01 T01900109  RH  059%=      5-min Rain = 0
KLA1 091905Z 13005KT 19/11 A3023 RMK A01 T01900109  RH  059%=      5-min Rain = 0
KLA1 091906Z 12004KT 19/11 A3023 RMK A01 T01890108  RH  059%=      5-min Rain = 0
KLA1 091907Z 13003KT 19/11 A3023 RMK A01 T01870106  RH  059%=      5-min Rain = 0
KLA1 091908Z 13005KT 19/11 A3023 RMK A01 T01870109  RH  060%=      5-min Rain = 0
KLA1 091909Z 15007KT 19/11 A3022 RMK A01 T01890110  RH  060%=      5-min Rain = 0
KLA1 091910Z 17005KT 19/11 A3022 RMK A01 T01910111  RH  060%=      5-min Rain = 0
KLA1 091911Z 19007KT 19/11 A3022 RMK A01 T01920109  RH  058%=      5-min Rain = 0
KLA1 091912Z 20005KT 19/11 A3022 RMK A01 T01910108  RH  059%=      5-min Rain = 0
KLA1 091913Z 21005KT 19/11 A3022 RMK A01 T01890109  RH  060%=      5-min Rain = 0
KLA1 091914Z 20005KT 19/11 A3022 RMK A01 T01890109  RH  060%=      5-min Rain = 0
KLA1 091915Z 21005KT 19/11 A3022 RMK A01 T01890109  RH  060%=      5-min Rain = 0
KLA1 091916Z 20007KT 19/11 A3022 RMK A01 T01900110  RH  060%=      5-min Rain = 0
KLA1 091917Z 20003KT 19/11 A3022 RMK A01 T01910109  RH  059%=      5-min Rain = 0
KLA1 091918Z 18004KT 19/11 A3022 RMK A01 T01900107  RH  058%=      5-min Rain = 0
KLA1 091919Z 15004KT 19/11 A3022 RMK A01 T01900108  RH  059%=      5-min Rain = 0
KLA1 091920Z 15006KT 19/11 A3022 RMK A01 T01900107  RH  059%=      5-min Rain = 0
KLA1 091921Z 13006KT 19/11 A3022 RMK A01 T01900109  RH  059%=      5-min Rain = 0
KLA1 091922Z 15004KT 19/11 A3022 RMK A01 T01910108  RH  058%=      5-min Rain = 0
KLA1 091923Z 15003KT 19/11 A3021 RMK A01 T01910109  RH  059%=      5-min Rain = 0
KLA1 091924Z 15003KT 19/11 A3021 RMK A01 T01920110  RH  059%=      5-min Rain = 0
KLA1 091925Z 17006KT 19/11 A3021 RMK A01 T01930109  RH  058%=      5-min Rain = 0
KLA1 091926Z 17005KT 19/11 A3021 RMK A01 T01930110  RH  058%=      5-min Rain = 0
KLA1 091927Z 17005KT 19/11 A3021 RMK A01 T01940109  RH  058%=      5-min Rain = 0
KLA1 091928Z 18005KT 19/11 A3021 RMK A01 T01940111  RH  059%=      5-min Rain = 0
KLA1 091929Z 22002KT 19/11 A3021 RMK A01 T01940110  RH  058%=      5-min Rain = 0
KLA1 091930Z 20002KT 19/11 A3021 RMK A01 T01930109  RH  058%=      5-min Rain = 0
KLA1 091931Z 21005KT 19/11 A3021 RMK A01 T01940110  RH  058%=      5-min Rain = 0
KLA1 091932Z 16006KT 19/11 A3021 RMK A01 T01940111  RH  058%=      5-min Rain = 0
KLA1 091933Z 17004KT 20/11 A3021 RMK A01 T01950111  RH  058%=      5-min Rain = 0
KLA1 091934Z 17004KT 20/11 A302 RMK A01 T01960111  RH  058%=      5-min Rain = 0
KLA1 091935Z 14002KT 20/11 A302 RMK A01 T01960110  RH  057%=      5-min Rain = 0
KLA1 091936Z 10003KT 20/11 A302 RMK A01 T01960108  RH  057%=      5-min Rain = 0
KLA1 091937Z 08001KT 20/11 A302 RMK A01 T01960109  RH  057%=      5-min Rain = 0
KLA1 091938Z 00000KT 20/11 A302 RMK A01 T01950108  RH  057%=      5-min Rain = 0
KLA1 091939Z 13001G7KT 20/11 A302 RMK A01 T01950107  RH  057%=      5-min Rain = 0
KLA1 091940Z 15008KT 20/11 A302 RMK A01 T01960111  RH  058%=      5-min Rain = 0
KLA1 091941Z 16008KT 20/11 A302 RMK A01 T01970112  RH  058%=      5-min Rain = 0
KLA1 091942Z 17007KT 20/11 A302 RMK A01 T01990112  RH  057%=      5-min Rain = 0
KLA1 091943Z 15005KT 20/11 A302 RMK A01 T01970111  RH  057%=      5-min Rain = 0
KLA1 091944Z 15006KT 20/11 A302 RMK A01 T01970114  RH  059%=      5-min Rain = 0
KLA1 091945Z 14006KT 20/11 A302 RMK A01 T01990111  RH  057%=      5-min Rain = 0
KLA1 091946Z 17006KT 20/11 A302 RMK A01 T01980111  RH  057%=      5-min Rain = 0
KLA1 091947Z 17005KT 20/11 A302 RMK A01 T01980113  RH  058%=      5-min Rain = 0
KLA1 091948Z 17004KT 20/11 A302 RMK A01 T01990112  RH  057%=      5-min Rain = 0
KLA1 091949Z 21005KT 20/11 A302 RMK A01 T01990112  RH  057%=      5-min Rain = 0
KLA1 091950Z 21005KT 20/11 A302 RMK A01 T01990113  RH  058%=      5-min Rain = 0
KLA1 091951Z 19005KT 20/11 A302 RMK A01 T01990113  RH  058%=      5-min Rain = 0
KLA1 091952Z 19005KT 20/11 A3019 RMK A01 T01990112  RH  057%=      5-min Rain = 0
KLA1 091953Z 17003KT 20/11 A3019 RMK A01 T01990113  RH  057%=      5-min Rain = 0
KLA1 091954Z 10005KT 20/11 A3019 RMK A01 T01990112  RH  057%=      5-min Rain = 0
KLA1 091955Z 13005KT 20/11 A3019 RMK A01 T01990112  RH  057%=      5-min Rain = 0
KLA1 091956Z 13006KT 20/12 A3019 RMK A01 T02000115  RH  058%=      5-min Rain = 0
KLA1 091957Z 15007KT 20/12 A3019 RMK A01 T02020115  RH  057%=      5-min Rain = 0
KLA1 091958Z 16004KT 20/11 A3019 RMK A01 T02030113  RH  056%=      5-min Rain = 0
KLA1 091959Z 13006KT 20/11 A3019 RMK A01 T02030114  RH  057%=      5-min Rain = 0
KLA1 092000Z 11006KT 20/11 A3019 RMK A01 T02030113  RH  056%=      5-min Rain = 0
KLA1 092001Z 10007KT 20/11 A3019 RMK A01 T02010111  RH  056%=      5-min Rain = 0
KLA1 092002Z 12007KT 20/11 A3019 RMK A01 T01990113  RH  057%=      5-min Rain = 0
KLA1 092003Z 14007KT 20/11 A3019 RMK A01 T01990113  RH  057%=      5-min Rain = 0
KLA1 092004Z 14004KT 20/11 A3019 RMK A01 T01990112  RH  057%=      5-min Rain = 0
KLA1 092005Z 19003KT 20/11 A3019 RMK A01 T01990112  RH  057%=      5-min Rain = 0
KLA1 092006Z 18004KT 20/11 A3019 RMK A01 T01990113  RH  057%=      5-min Rain = 0
KLA1 092007Z 18006KT 20/11 A3019 RMK A01 T02000113  RH  057%=      5-min Rain = 0
KLA1 092008Z 20005KT 20/11 A3019 RMK A01 T02000112  RH  057%=      5-min Rain = 0
KLA1 092009Z 19005KT 20/11 A3019 RMK A01 T01990112  RH  057%=      5-min Rain = 0
KLA1 092010Z 17003KT 20/11 A3019 RMK A01 T01990113  RH  057%=      5-min Rain = 0
KLA1 092011Z 14006KT 20/11 A3019 RMK A01 T02000113  RH  057%=      5-min Rain = 0
KLA1 092012Z 16008KT 20/11 A3019 RMK A01 T02010113  RH  057%=      5-min Rain = 0
KLA1 092013Z 16008KT 20/11 A3019 RMK A01 T02010113  RH  057%=      5-min Rain = 0
KLA1 092014Z 14006KT 20/11 A3019 RMK A01 T02010114  RH  057%=      5-min Rain = 0
KLA1 092015Z 16004KT 20/11 A3018 RMK A01 T02010112  RH  057%=      5-min Rain = 0
KLA1 092016Z 16006KT 20/11 A3018 RMK A01 T02000114  RH  057%=      5-min Rain = 0
KLA1 092017Z 14007KT 20/12 A3018 RMK A01 T02020115  RH  057%=      5-min Rain = 0
KLA1 092018Z 12003KT 20/11 A3018 RMK A01 T02030113  RH  056%=      5-min Rain = 0
KLA1 092019Z 11003KT 20/12 A3018 RMK A01 T02020115  RH  057%=      5-min Rain = 0
KLA1 092020Z 12006KT 20/12 A3018 RMK A01 T02030115  RH  057%=      5-min Rain = 0
KLA1 092021Z 14008KT 20/12 A3018 RMK A01 T02040115  RH  057%=      5-min Rain = 0
KLA1 092022Z 13007KT 20/12 A3018 RMK A01 T02040115  RH  056%=      5-min Rain = 0
KLA1 092023Z 13007KT 20/11 A3018 RMK A01 T02040114  RH  056%=      5-min Rain = 0
KLA1 092024Z 12005KT 20/12 A3018 RMK A01 T02030115  RH  057%=      5-min Rain = 0
KLA1 092025Z 10005KT 20/12 A3018 RMK A01 T02040115  RH  057%=      5-min Rain = 0
KLA1 092026Z 13007KT 20/12 A3018 RMK A01 T02040115  RH  057%=      5-min Rain = 0
KLA1 092027Z 13009KT 20/11 A3018 RMK A01 T02040114  RH  056%=      5-min Rain = 0
KLA1 092028Z 13010KT 21/12 A3018 RMK A01 T02050115  RH  056%=      5-min Rain = 0
KLA1 092029Z 14007KT 21/11 A3018 RMK A01 T02050114  RH  056%=      5-min Rain = 0
KLA1 092030Z 13005KT 20/11 A3018 RMK A01 T02040114  RH  056%=      5-min Rain = 0
KLA1 092031Z 15004KT 20/12 A3018 RMK A01 T02040115  RH  057%=      5-min Rain = 0
KLA1 092032Z 13004KT 20/12 A3018 RMK A01 T02040117  RH  057%=      5-min Rain = 0
KLA1 092033Z 12004KT 21/12 A3018 RMK A01 T02070116  RH  056%=      5-min Rain = 0
KLA1 092034Z 15005KT 21/12 A3018 RMK A01 T02080115  RH  055%=      5-min Rain = 0
KLA1 092035Z 13007KT 21/12 A3018 RMK A01 T02080115  RH  055%=      5-min Rain = 0
KLA1 092036Z 12006KT 21/11 A3018 RMK A01 T02070114  RH  055%=      5-min Rain = 0
KLA1 092037Z 13005KT 21/12 A3018 RMK A01 T02060116  RH  056%=      5-min Rain = 0
KLA1 092038Z 14007KT 21/12 A3018 RMK A01 T02070116  RH  056%=      5-min Rain = 0
KLA1 092039Z 13006KT 21/12 A3018 RMK A01 T02080116  RH  056%=      5-min Rain = 0
KLA1 092040Z 14007KT 21/11 A3018 RMK A01 T02070114  RH  055%=      5-min Rain = 0
KLA1 092041Z 14006KT 21/11 A3017 RMK A01 T02060114  RH  056%=      5-min Rain = 0
KLA1 092042Z 15006KT 21/12 A3017 RMK A01 T02050115  RH  056%=      5-min Rain = 0
KLA1 092043Z 18004KT 21/12 A3017 RMK A01 T02050115  RH  056%=      5-min Rain = 0
KLA1 092044Z 15005KT 21/12 A3017 RMK A01 T02050115  RH  056%=      5-min Rain = 0
KLA1 092045Z 13007KT 21/12 A3017 RMK A01 T02070117  RH  056%=      5-min Rain = 0
KLA1 092046Z 14007KT 21/12 A3017 RMK A01 T02080117  RH  056%=      5-min Rain = 0
KLA1 092047Z 13007KT 21/12 A3017 RMK A01 T02080115  RH  055%=      5-min Rain = 0
KLA1 092048Z 13006KT 21/12 A3017 RMK A01 T02070115  RH  055%=      5-min Rain = 0
KLA1 092049Z 13005KT 21/12 A3017 RMK A01 T02060115  RH  056%=      5-min Rain = 0
KLA1 092050Z 13007KT 21/12 A3017 RMK A01 T02050115  RH  056%=      5-min Rain = 0
KLA1 092051Z 13007KT 21/12 A3017 RMK A01 T02050116  RH  056%=      5-min Rain = 0
KLA1 092052Z 15007KT 21/12 A3017 RMK A01 T02060115  RH  056%=      5-min Rain = 0
KLA1 092053Z 15007KT 21/12 A3016 RMK A01 T02060116  RH  056%=      5-min Rain = 0
KLA1 092054Z 14008KT 21/12 A3016 RMK A01 T02070117  RH  056%=      5-min Rain = 0
KLA1 092055Z 15008KT 21/12 A3016 RMK A01 T02070116  RH  056%=      5-min Rain = 0
KLA1 092056Z 15008KT 21/12 A3016 RMK A01 T02080116  RH  056%=      5-min Rain = 0
KLA1 092057Z 16007KT 21/12 A3017 RMK A01 T02080116  RH  056%=      5-min Rain = 0
KLA1 092058Z 16006KT 21/12 A3017 RMK A01 T02080116  RH  056%=      5-min Rain = 0
KLA1 092059Z 15004KT 21/12 A3016 RMK A01 T02080116  RH  055%=      5-min Rain = 0
KLA1 092100Z 12003KT 21/12 A3016 RMK A01 T02080116  RH  056%=      5-min Rain = 0
KLA1 092101Z 16003KT 21/12 A3016 RMK A01 T02080116  RH  056%=      5-min Rain = 0
KLA1 092102Z 14004KT 21/12 A3016 RMK A01 T02080118  RH  056%=      5-min Rain = 0
KLA1 092103Z 13006KT 21/12 A3016 RMK A01 T02080116  RH  055%=      5-min Rain = 0
KLA1 092104Z 13007KT 21/12 A3016 RMK A01 T02080116  RH  055%=      5-min Rain = 0
KLA1 092105Z 12006KT 21/12 A3016 RMK A01 T02080116  RH  055%=      5-min Rain = 0
KLA1 092106Z 14005KT 21/12 A3016 RMK A01 T02080116  RH  056%=      5-min Rain = 0
KLA1 092107Z 16003KT 21/12 A3016 RMK A01 T02080116  RH  056%=      5-min Rain = 0
KLA1 092108Z 18003KT 21/12 A3016 RMK A01 T02070117  RH  056%=      5-min Rain = 0
KLA1 092109Z 17002KT 21/12 A3016 RMK A01 T02090119  RH  056%=      5-min Rain = 0
KLA1 092110Z 16004KT 21/12 A3016 RMK A01 T02110118  RH  055%=      5-min Rain = 0
KLA1 092111Z 14003KT 21/12 A3016 RMK A01 T02120119  RH  056%=      5-min Rain = 0
KLA1 092112Z 13004KT 21/12 A3016 RMK A01 T02120116  RH  054%=      5-min Rain = 0
KLA1 092113Z 15004KT 21/12 A3016 RMK A01 T02110118  RH  055%=      5-min Rain = 0
KLA1 092114Z 16004KT 21/12 A3016 RMK A01 T02110118  RH  055%=      5-min Rain = 0
KLA1 092115Z 19003KT 21/12 A3016 RMK A01 T02110118  RH  055%=      5-min Rain = 0
KLA1 092116Z 17001KT 21/12 A3016 RMK A01 T02110118  RH  055%=      5-min Rain = 0
KLA1 092117Z 15007KT 21/12 A3016 RMK A01 T02120118  RH  055%=      5-min Rain = 0
KLA1 092118Z 15006KT 21/12 A3016 RMK A01 T02120119  RH  055%=      5-min Rain = 0
KLA1 092119Z 16005KT 21/12 A3016 RMK A01 T02120117  RH  055%=      5-min Rain = 0
KLA1 092120Z 16005KT 21/12 A3016 RMK A01 T02110118  RH  055%=      5-min Rain = 0
KLA1 092121Z 16005KT 21/12 A3016 RMK A01 T02120121  RH  056%=      5-min Rain = 0
KLA1 092122Z 18006KT 21/12 A3016 RMK A01 T02140120  RH  055%=      5-min Rain = 0
KLA1 092123Z 16006KT 21/12 A3016 RMK A01 T02140118  RH  054%=      5-min Rain = 0
KLA1 092124Z 14005KT 21/12 A3016 RMK A01 T02120118  RH  055%=      5-min Rain = 0
KLA1 092125Z 13004KT 21/12 A3016 RMK A01 T02110117  RH  055%=      5-min Rain = 0
KLA1 092126Z 13003KT 21/12 A3016 RMK A01 T02100120  RH  056%=      5-min Rain = 0
KLA1 092127Z 14004KT 21/12 A3016 RMK A01 T02110118  RH  055%=      5-min Rain = 0
KLA1 092128Z 16002KT 21/12 A3016 RMK A01 T02110117  RH  055%=      5-min Rain = 0
KLA1 092129Z 18003KT 21/12 A3016 RMK A01 T02110117  RH  055%=      5-min Rain = 0
KLA1 092130Z 18004KT 21/12 A3016 RMK A01 T02110118  RH  055%=      5-min Rain = 0
KLA1 092131Z 19005KT 21/12 A3016 RMK A01 T02120120  RH  056%=      5-min Rain = 0
KLA1 092132Z 19005KT 21/12 A3015 RMK A01 T02140121  RH  055%=      5-min Rain = 0
KLA1 092133Z 19006KT 21/12 A3015 RMK A01 T02140122  RH  055%=      5-min Rain = 0
KLA1 092134Z 19005KT 22/12 A3015 RMK A01 T02160123  RH  055%=      5-min Rain = 0
KLA1 092135Z 18005KT 22/12 A3015 RMK A01 T02170121  RH  054%=      5-min Rain = 0
KLA1 092136Z 16005KT 22/12 A3015 RMK A01 T02170122  RH  054%=      5-min Rain = 0
KLA1 092137Z 14006KT 22/12 A3015 RMK A01 T02170120  RH  054%=      5-min Rain = 0
KLA1 092138Z 13006KT 22/12 A3015 RMK A01 T02150119  RH  054%=      5-min Rain = 0
KLA1 092139Z 13004KT 21/12 A3015 RMK A01 T02140120  RH  055%=      5-min Rain = 0
KLA1 092140Z 15004KT 21/12 A3015 RMK A01 T02130120  RH  055%=      5-min Rain = 0
KLA1 092141Z 19007KT 21/12 A3015 RMK A01 T02140119  RH  055%=      5-min Rain = 0
KLA1 092142Z 19007KT 21/12 A3015 RMK A01 T02130121  RH  055%=      5-min Rain = 0
KLA1 092143Z 19006KT 21/12 A3015 RMK A01 T02130120  RH  055%=      5-min Rain = 0
KLA1 092144Z 18005KT 21/12 A3015 RMK A01 T02120120  RH  056%=      5-min Rain = 0
KLA1 092145Z 17004KT 21/12 A3015 RMK A01 T02120119  RH  055%=      5-min Rain = 0
KLA1 092146Z 19006KT 21/12 A3015 RMK A01 T02120120  RH  056%=      5-min Rain = 0
KLA1 092147Z 19006KT 21/12 A3015 RMK A01 T02130119  RH  055%=      5-min Rain = 0
KLA1 092148Z 19006KT 21/12 A3015 RMK A01 T02120121  RH  056%=      5-min Rain = 0
KLA1 092149Z 18007KT 21/12 A3015 RMK A01 T02120119  RH  055%=      5-min Rain = 0
KLA1 092150Z 17005KT 21/12 A3015 RMK A01 T02120119  RH  055%=      5-min Rain = 0
KLA1 092151Z 16004KT 21/12 A3015 RMK A01 T02130119  RH  055%=      5-min Rain = 0
KLA1 092152Z 15004KT 21/12 A3015 RMK A01 T02130121  RH  055%=      5-min Rain = 0
KLA1 092153Z 18004KT 21/12 A3015 RMK A01 T02140120  RH  055%=      5-min Rain = 0
KLA1 092154Z 18004KT 22/12 A3015 RMK A01 T02150120  RH  055%=      5-min Rain = 0
KLA1 092155Z 17003KT 22/12 A3015 RMK A01 T02150119  RH  054%=      5-min Rain = 0
KLA1 092156Z 16004KT 22/12 A3015 RMK A01 T02150120  RH  055%=      5-min Rain = 0
KLA1 092157Z 16003KT 22/12 A3015 RMK A01 T02150120  RH  055%=      5-min Rain = 0
KLA1 092158Z 16007KT 22/12 A3015 RMK A01 T02150121  RH  055%=      5-min Rain = 0
KLA1 092159Z 17006KT 22/12 A3015 RMK A01 T02150121  RH  055%=      5-min Rain = 0
KLA1 092200Z 16005KT 22/12 A3015 RMK A01 T02150123  RH  055%=      5-min Rain = 0
KLA1 092201Z 16005KT 22/12 A3015 RMK A01 T02160120  RH  054%=      5-min Rain = 0
KLA1 092202Z 15006KT 22/12 A3015 RMK A01 T02150122  RH  055%=      5-min Rain = 0
KLA1 092203Z 14005KT 22/12 A3015 RMK A01 T02150122  RH  055%=      5-min Rain = 0
KLA1 092204Z 13003KT 22/12 A3015 RMK A01 T02150121  RH  055%=      5-min Rain = 0
KLA1 092205Z 15004KT 22/12 A3015 RMK A01 T02150121  RH  055%=      5-min Rain = 0
KLA1 092206Z 13002KT 22/12 A3014 RMK A01 T02150120  RH  055%=      5-min Rain = 0
KLA1 092207Z 15002KT 22/12 A3014 RMK A01 T02150120  RH  055%=      5-min Rain = 0
KLA1 092208Z 15006KT 22/12 A3014 RMK A01 T02150121  RH  055%=      5-min Rain = 0
KLA1 092209Z 17005KT 21/12 A3015 RMK A01 T02140120  RH  055%=      5-min Rain = 0
KLA1 092210Z 16004KT 21/12 A3015 RMK A01 T02130120  RH  055%=      5-min Rain = 0
KLA1 092211Z 14006KT 21/12 A3015 RMK A01 T02130120  RH  056%=      5-min Rain = 0
KLA1 092212Z 16006KT 21/12 A3015 RMK A01 T02130121  RH  056%=      5-min Rain = 0
KLA1 092213Z 15004KT 21/12 A3015 RMK A01 T02130119  RH  055%=      5-min Rain = 0
KLA1 092214Z 16005KT 21/12 A3015 RMK A01 T02130120  RH  055%=      5-min Rain = 0
KLA1 092215Z 15004KT 21/12 A3015 RMK A01 T02130120  RH  055%=      5-min Rain = 0
KLA1 092216Z 17004KT 21/12 A3015 RMK A01 T02130120  RH  055%=      5-min Rain = 0
KLA1 092217Z 17005KT 21/12 A3015 RMK A01 T02130119  RH  055%=      5-min Rain = 0
KLA1 092218Z 16004KT 21/12 A3015 RMK A01 T02130120  RH  055%=      5-min Rain = 0
KLA1 092219Z 18005KT 21/12 A3014 RMK A01 T02130121  RH  056%=      5-min Rain = 0
KLA1 092220Z 18006KT 21/12 A3014 RMK A01 T02140121  RH  055%=      5-min Rain = 0
KLA1 092221Z 18005KT 21/12 A3014 RMK A01 T02140121  RH  055%=      5-min Rain = 0
KLA1 092222Z 18006KT 21/12 A3014 RMK A01 T02130122  RH  056%=      5-min Rain = 0
KLA1 092223Z 18006KT 21/12 A3014 RMK A01 T02140122  RH  056%=      5-min Rain = 0
KLA1 092224Z 18005KT 22/12 A3014 RMK A01 T02150121  RH  055%=      5-min Rain = 0
KLA1 092225Z 17006KT 22/12 A3014 RMK A01 T02150121  RH  055%=      5-min Rain = 0
KLA1 092226Z 17005KT 21/12 A3014 RMK A01 T02130121  RH  055%=      5-min Rain = 0
KLA1 092227Z 16004KT 21/12 A3014 RMK A01 T02130121  RH  056%=      5-min Rain = 0
KLA1 092228Z 16004KT 21/12 A3014 RMK A01 T02130121  RH  056%=      5-min Rain = 0
KLA1 092229Z 14004KT 21/12 A3014 RMK A01 T02130119  RH  055%=      5-min Rain = 0
KLA1 092230Z 14004KT 21/12 A3014 RMK A01 T02130119  RH  055%=      5-min Rain = 0
KLA1 092231Z 14005KT 21/12 A3014 RMK A01 T02130121  RH  056%=      5-min Rain = 0
KLA1 092232Z 13006KT 21/12 A3014 RMK A01 T02120121  RH  056%=      5-min Rain = 0
KLA1 092233Z 11005KT 21/12 A3014 RMK A01 T02130120  RH  056%=      5-min Rain = 0
KLA1 092234Z 11004KT 21/12 A3014 RMK A01 T02130120  RH  055%=      5-min Rain = 0
KLA1 092235Z 12004KT 21/12 A3014 RMK A01 T02120120  RH  056%=      5-min Rain = 0
KLA1 092236Z 14005KT 21/12 A3014 RMK A01 T02120122  RH  056%=      5-min Rain = 0
KLA1 092237Z 16006KT 21/12 A3014 RMK A01 T02130123  RH  056%=      5-min Rain = 0
KLA1 092238Z 16007KT 21/12 A3014 RMK A01 T02140121  RH  055%=      5-min Rain = 0
KLA1 092239Z 15006KT 21/12 A3014 RMK A01 T02140121  RH  055%=      5-min Rain = 0
KLA1 092240Z 16005KT 21/12 A3014 RMK A01 T02130120  RH  055%=      5-min Rain = 0
KLA1 092241Z 15006KT 21/12 A3014 RMK A01 T02120120  RH  056%=      5-min Rain = 0
KLA1 092242Z 14007KT 21/12 A3014 RMK A01 T02120121  RH  056%=      5-min Rain = 0
KLA1 092243Z 14005KT 21/12 A3014 RMK A01 T02120121  RH  056%=      5-min Rain = 0
KLA1 092244Z 14005KT 21/12 A3014 RMK A01 T02110121  RH  056%=      5-min Rain = 0
KLA1 092245Z 14006KT 21/12 A3014 RMK A01 T02120120  RH  056%=      5-min Rain = 0
KLA1 092246Z 14007KT 21/12 A3014 RMK A01 T02110120  RH  056%=      5-min Rain = 0
KLA1 092247Z 17007KT 21/12 A3014 RMK A01 T02110121  RH  056%=      5-min Rain = 0
KLA1 092248Z 17007KT 21/12 A3014 RMK A01 T02110120  RH  056%=      5-min Rain = 0
KLA1 092249Z 17007KT 21/12 A3014 RMK A01 T02100121  RH  057%=      5-min Rain = 0
KLA1 092250Z 17005KT 21/12 A3014 RMK A01 T02100120  RH  056%=      5-min Rain = 0
KLA1 092251Z 16006KT 21/12 A3014 RMK A01 T02110121  RH  057%=      5-min Rain = 0
KLA1 092252Z 17007KT 21/12 A3014 RMK A01 T02100121  RH  056%=      5-min Rain = 0
KLA1 092253Z 18006KT 21/12 A3014 RMK A01 T02100121  RH  056%=      5-min Rain = 0
KLA1 092254Z 17006KT 21/12 A3014 RMK A01 T02100121  RH  057%=      5-min Rain = 0
KLA1 092255Z 17006KT 21/12 A3014 RMK A01 T02100120  RH  057%=      5-min Rain = 0
KLA1 092256Z 17006KT 21/12 A3014 RMK A01 T02090120  RH  057%=      5-min Rain = 0
KLA1 092257Z 17005KT 21/12 A3014 RMK A01 T02090121  RH  057%=      5-min Rain = 0
KLA1 092258Z 17005KT 21/12 A3014 RMK A01 T02090121  RH  057%=      5-min Rain = 0
KLA1 092259Z 16004KT 21/12 A3014 RMK A01 T02090121  RH  057%=      5-min Rain = 0
KLA1 092300Z 16005KT 21/12 A3014 RMK A01 T02090120  RH  057%=      5-min Rain = 0
KLA1 092301Z 17005KT 21/12 A3014 RMK A01 T02090121  RH  057%=      5-min Rain = 0
KLA1 092302Z 17007KT 21/12 A3014 RMK A01 T02100121  RH  057%=      5-min Rain = 0
KLA1 092303Z 17005KT 21/12 A3014 RMK A01 T02090121  RH  057%=      5-min Rain = 0
KLA1 092304Z 18005KT 21/12 A3014 RMK A01 T02080121  RH  057%=      5-min Rain = 0
KLA1 092305Z 17004KT 21/12 A3014 RMK A01 T02080121  RH  057%=      5-min Rain = 0
KLA1 092306Z 16005KT 21/12 A3014 RMK A01 T02090122  RH  058%=      5-min Rain = 0
KLA1 092307Z 15006KT 21/12 A3014 RMK A01 T02090121  RH  057%=      5-min Rain = 0
KLA1 092308Z 16004KT 21/12 A3014 RMK A01 T02090120  RH  057%=      5-min Rain = 0
KLA1 092309Z 18004KT 21/12 A3014 RMK A01 T02080121  RH  057%=      5-min Rain = 0
KLA1 092310Z 18003KT 21/12 A3014 RMK A01 T02090122  RH  057%=      5-min Rain = 0
KLA1 092311Z 18003KT 21/12 A3014 RMK A01 T02080122  RH  058%=      5-min Rain = 0
KLA1 092312Z 17004KT 21/12 A3014 RMK A01 T02080122  RH  058%=      5-min Rain = 0
KLA1 092313Z 18004KT 21/12 A3014 RMK A01 T02080122  RH  058%=      5-min Rain = 0
KLA1 092314Z 18004KT 21/12 A3014 RMK A01 T02080121  RH  058%=      5-min Rain = 0
KLA1 092315Z 18005KT 21/12 A3014 RMK A01 T02070122  RH  058%=      5-min Rain = 0
KLA1 092316Z 18005KT 21/12 A3014 RMK A01 T02070121  RH  058%=      5-min Rain = 0
KLA1 092317Z 18006KT 21/12 A3014 RMK A01 T02070122  RH  058%=      5-min Rain = 0
KLA1 092318Z 18005KT 21/12 A3014 RMK A01 T02060121  RH  058%=      5-min Rain = 0
KLA1 092319Z 17004KT 21/12 A3014 RMK A01 T02060122  RH  058%=      5-min Rain = 0
KLA1 092320Z 16005KT 21/12 A3014 RMK A01 T02060121  RH  058%=      5-min Rain = 0
KLA1 092321Z 18005KT 21/12 A3014 RMK A01 T02050121  RH  058%=      5-min Rain = 0
KLA1 092322Z 17005KT 21/12 A3014 RMK A01 T02050122  RH  059%=      5-min Rain = 0
KLA1 092323Z 18004KT 21/12 A3014 RMK A01 T02050121  RH  059%=      5-min Rain = 0
KLA1 092324Z 17004KT 20/12 A3014 RMK A01 T02040122  RH  059%=      5-min Rain = 0
KLA1 092325Z 17005KT 20/12 A3014 RMK A01 T02040122  RH  059%=      5-min Rain = 0
KLA1 092326Z 17005KT 20/12 A3014 RMK A01 T02040121  RH  059%=      5-min Rain = 0
KLA1 092327Z 17005KT 20/12 A3014 RMK A01 T02030120  RH  059%=      5-min Rain = 0
KLA1 092328Z 17004KT 20/12 A3014 RMK A01 T02030121  RH  059%=      5-min Rain = 0
KLA1 092329Z 17005KT 20/12 A3014 RMK A01 T02020121  RH  060%=      5-min Rain = 0
KLA1 092330Z 17004KT 20/12 A3014 RMK A01 T02020121  RH  060%=      5-min Rain = 0
KLA1 092331Z 17004KT 20/12 A3014 RMK A01 T02010122  RH  060%=      5-min Rain = 0
KLA1 092332Z 17004KT 20/12 A3014 RMK A01 T02010122  RH  060%=      5-min Rain = 0
KLA1 092333Z 17004KT 20/12 A3014 RMK A01 T02000122  RH  060%=      5-min Rain = 0
KLA1 092334Z 17003KT 20/12 A3014 RMK A01 T02000122  RH  061%=      5-min Rain = 0
KLA1 092335Z 17004KT 20/12 A3014 RMK A01 T02000122  RH  061%=      5-min Rain = 0
KLA1 092336Z 17004KT 20/12 A3014 RMK A01 T01990121  RH  061%=      5-min Rain = 0
KLA1 092337Z 18004KT 20/12 A3014 RMK A01 T01990122  RH  061%=      5-min Rain = 0
KLA1 092338Z 18003KT 20/12 A3014 RMK A01 T01980123  RH  062%=      5-min Rain = 0
KLA1 092339Z 18004KT 20/12 A3014 RMK A01 T01970122  RH  062%=      5-min Rain = 0
KLA1 092340Z 18004KT 20/12 A3014 RMK A01 T01970122  RH  062%=      5-min Rain = 0
KLA1 092341Z 18004KT 20/12 A3014 RMK A01 T01960122  RH  062%=      5-min Rain = 0
KLA1 092342Z 18004KT 20/12 A3014 RMK A01 T01950123  RH  063%=      5-min Rain = 0
KLA1 092343Z 18004KT 19/12 A3014 RMK A01 T01940122  RH  063%=      5-min Rain = 0
KLA1 092344Z 17004KT 19/12 A3014 RMK A01 T01930122  RH  063%=      5-min Rain = 0
KLA1 092345Z 17004KT 19/12 A3014 RMK A01 T01930122  RH  063%=      5-min Rain = 0
KLA1 092346Z 17004KT 19/12 A3014 RMK A01 T01920121  RH  064%=      5-min Rain = 0
KLA1 092347Z 17005KT 19/12 A3014 RMK A01 T01910121  RH  064%=      5-min Rain = 0
KLA1 092348Z 18005KT 19/12 A3014 RMK A01 T01910120  RH  064%=      5-min Rain = 0
KLA1 092349Z 17005KT 19/12 A3014 RMK A01 T01900120  RH  064%=      5-min Rain = 0
KLA1 092350Z 17004KT 19/12 A3014 RMK A01 T01900120  RH  064%=      5-min Rain = 0
KLA1 092351Z 17005KT 19/12 A3014 RMK A01 T01890120  RH  064%=      5-min Rain = 0
KLA1 092352Z 17004KT 19/12 A3014 RMK A01 T01890120  RH  064%=      5-min Rain = 0
KLA1 092353Z 17004KT 19/12 A3014 RMK A01 T01880120  RH  065%=      5-min Rain = 0
KLA1 092354Z 17004KT 19/12 A3014 RMK A01 T01880120  RH  065%=      5-min Rain = 0
KLA1 092355Z 17005KT 19/12 A3014 RMK A01 T01870120  RH  065%=      5-min Rain = 0
KLA1 092356Z 17005KT 19/12 A3014 RMK A01 T01870120  RH  065%=      5-min Rain = 0
KLA1 092357Z 17005KT 19/12 A3014 RMK A01 T01860120  RH  065%=      5-min Rain = 0
KLA1 092358Z 18005KT 19/12 A3014 RMK A01 T01860120  RH  065%=      5-min Rain = 0
KLA1 092359Z 18004KT 19/12 A3014 RMK A01 T01860120  RH  065%=      5-min Rain = 0
KLA1 100000Z 17004KT 19/12 A3014 RMK A01 T01850119  RH  066%=      5-min Rain = 0
KLA1 100001Z 17004KT 19/12 A3014 RMK A01 T01850120  RH  066%=      5-min Rain = 0
KLA1 100002Z 17004KT 18/12 A3014 RMK A01 T01840120  RH  066%=      5-min Rain = 0
KLA1 100003Z 17004KT 18/12 A3014 RMK A01 T01830119  RH  066%=      5-min Rain = 0
KLA1 100004Z 17004KT 18/12 A3014 RMK A01 T01830119  RH  066%=      5-min Rain = 0
KLA1 100005Z 17004KT 18/12 A3014 RMK A01 T01830119  RH  066%=      5-min Rain = 0
KLA1 100006Z 17004KT 18/12 A3014 RMK A01 T01820119  RH  066%=      5-min Rain = 0
KLA1 100007Z 17004KT 18/12 A3014 RMK A01 T01820119  RH  067%=      5-min Rain = 0
KLA1 100008Z 17004KT 18/12 A3014 RMK A01 T01810119  RH  067%=      5-min Rain = 0
KLA1 100009Z 17004KT 18/12 A3014 RMK A01 T01810119  RH  067%=      5-min Rain = 0
KLA1 100010Z 17004KT 18/12 A3014 RMK A01 T01810119  RH  067%=      5-min Rain = 0
KLA1 100011Z 17003KT 18/12 A3014 RMK A01 T01810119  RH  067%=      5-min Rain = 0
KLA1 100012Z 16003KT 18/12 A3014 RMK A01 T01800119  RH  067%=      5-min Rain = 0
KLA1 100013Z 15003KT 18/12 A3014 RMK A01 T01800120  RH  068%=      5-min Rain = 0
KLA1 100014Z 15003KT 18/12 A3014 RMK A01 T01790120  RH  068%=      5-min Rain = 0
KLA1 100015Z 15003KT 18/12 A3014 RMK A01 T01780120  RH  068%=      5-min Rain = 0
KLA1 100016Z 14003KT 18/12 A3014 RMK A01 T01770119  RH  068%=      5-min Rain = 0
KLA1 100017Z 14003KT 18/12 A3014 RMK A01 T01770119  RH  069%=      5-min Rain = 0
KLA1 100018Z 14003KT 18/12 A3014 RMK A01 T01760119  RH  069%=      5-min Rain = 0
KLA1 100019Z 14003KT 18/12 A3014 RMK A01 T01760119  RH  069%=      5-min Rain = 0
KLA1 100020Z 14003KT 18/12 A3014 RMK A01 T01750119  RH  069%=      5-min Rain = 0
KLA1 100021Z 14003KT 17/12 A3014 RMK A01 T01740118  RH  070%=      5-min Rain = 0
KLA1 100022Z 13003KT 17/12 A3014 RMK A01 T01740118  RH  070%=      5-min Rain = 0
KLA1 100023Z 13003KT 17/12 A3014 RMK A01 T01740118  RH  070%=      5-min Rain = 0
KLA1 100024Z 13003KT 17/12 A3014 RMK A01 T01730118  RH  070%=      5-min Rain = 0
KLA1 100025Z 13003KT 17/12 A3014 RMK A01 T01730118  RH  070%=      5-min Rain = 0
KLA1 100026Z 13003KT 17/12 A3014 RMK A01 T01730118  RH  070%=      5-min Rain = 0
KLA1 100027Z 13003KT 17/12 A3014 RMK A01 T01730119  RH  070%=      5-min Rain = 0
KLA1 100028Z 12003KT 17/12 A3014 RMK A01 T01730118  RH  070%=      5-min Rain = 0
KLA1 100029Z 11004KT 17/12 A3014 RMK A01 T01730118  RH  070%=      5-min Rain = 0
KLA1 100030Z 10004KT 17/12 A3014 RMK A01 T01730118  RH  070%=      5-min Rain = 0
KLA1 100031Z 10004KT 17/12 A3014 RMK A01 T01720119  RH  071%=      5-min Rain = 0
KLA1 100032Z 10004KT 17/12 A3014 RMK A01 T01720118  RH  071%=      5-min Rain = 0
KLA1 100033Z 10004KT 17/12 A3014 RMK A01 T01720119  RH  071%=      5-min Rain = 0
KLA1 100034Z 10004KT 17/12 A3014 RMK A01 T01720118  RH  071%=      5-min Rain = 0
KLA1 100035Z 10004KT 17/12 A3014 RMK A01 T01710118  RH  071%=      5-min Rain = 0
KLA1 100036Z 11005KT 17/12 A3014 RMK A01 T01710118  RH  071%=      5-min Rain = 0
KLA1 100037Z 11004KT 17/12 A3014 RMK A01 T01720119  RH  071%=      5-min Rain = 0
KLA1 100038Z 11004KT 17/12 A3014 RMK A01 T01720119  RH  071%=      5-min Rain = 0
KLA1 100039Z 11004KT 17/12 A3014 RMK A01 T01730119  RH  071%=      5-min Rain = 0
KLA1 100040Z 11004KT 17/12 A3014 RMK A01 T01730119  RH  071%=      5-min Rain = 0
KLA1 100041Z 11004KT 17/12 A3014 RMK A01 T01730119  RH  071%=      5-min Rain = 0
KLA1 100042Z 11004KT 17/12 A3014 RMK A01 T01730120  RH  071%=      5-min Rain = 0
KLA1 100043Z 12004KT 17/12 A3014 RMK A01 T01730120  RH  071%=      5-min Rain = 0
KLA1 100044Z 11005KT 17/12 A3014 RMK A01 T01730120  RH  071%=      5-min Rain = 0
KLA1 100045Z 12004KT 17/12 A3014 RMK A01 T01730120  RH  071%=      5-min Rain = 0
KLA1 100046Z 12004KT 17/12 A3014 RMK A01 T01730120  RH  071%=      5-min Rain = 0
KLA1 100047Z 12004KT 17/12 A3015 RMK A01 T01730120  RH  071%=      5-min Rain = 0
KLA1 100048Z 12004KT 17/12 A3015 RMK A01 T01720120  RH  071%=      5-min Rain = 0
KLA1 100049Z 12004KT 17/12 A3015 RMK A01 T01720120  RH  071%=      5-min Rain = 0
KLA1 100050Z 12004KT 17/12 A3015 RMK A01 T01710120  RH  072%=      5-min Rain = 0
KLA1 100051Z 12004KT 17/12 A3015 RMK A01 T01710120  RH  072%=      5-min Rain = 0
KLA1 100052Z 12005KT 17/12 A3015 RMK A01 T01700120  RH  072%=      5-min Rain = 0
KLA1 100053Z 12004KT 17/12 A3015 RMK A01 T01700120  RH  072%=      5-min Rain = 0
KLA1 100054Z 12005KT 17/12 A3015 RMK A01 T01700120  RH  073%=      5-min Rain = 0
KLA1 100055Z 12005KT 17/12 A3015 RMK A01 T01690120  RH  073%=      5-min Rain = 0
KLA1 100056Z 12005KT 17/12 A3015 RMK A01 T01690120  RH  073%=      5-min Rain = 0
KLA1 100057Z 12005KT 17/12 A3015 RMK A01 T01690120  RH  073%=      5-min Rain = 0
KLA1 100058Z 12005KT 17/12 A3015 RMK A01 T01690120  RH  073%=      5-min Rain = 0
KLA1 100059Z 12005KT 17/12 A3015 RMK A01 T01680120  RH  073%=      5-min Rain = 0
KLA1 100100Z 12005KT 17/12 A3015 RMK A01 T01680120  RH  073%=      5-min Rain = 0
KLA1 100101Z 12005KT 17/12 A3015 RMK A01 T01680120  RH  073%=      5-min Rain = 0
KLA1 100102Z 12005KT 17/12 A3015 RMK A01 T01680120  RH  073%=      5-min Rain = 0
KLA1 100103Z 12004KT 17/12 A3015 RMK A01 T01680120  RH  073%=      5-min Rain = 0
KLA1 100104Z 12005KT 17/12 A3015 RMK A01 T01680120  RH  073%=      5-min Rain = 0
KLA1 100105Z 12005KT 17/12 A3015 RMK A01 T01680120  RH  073%=      5-min Rain = 0
KLA1 100106Z 12005KT 17/12 A3015 RMK A01 T01670120  RH  074%=      5-min Rain = 0
KLA1 100107Z 12005KT 17/12 A3015 RMK A01 T01670120  RH  074%=      5-min Rain = 0
KLA1 100108Z 12005KT 17/12 A3015 RMK A01 T01670120  RH  074%=      5-min Rain = 0
KLA1 100109Z 12005KT 17/12 A3015 RMK A01 T01670120  RH  074%=      5-min Rain = 0
KLA1 100110Z 12005KT 17/12 A3015 RMK A01 T01660120  RH  074%=      5-min Rain = 0
KLA1 100111Z 12005KT 17/12 A3015 RMK A01 T01660120  RH  074%=      5-min Rain = 0
KLA1 100112Z 12005KT 17/12 A3015 RMK A01 T01660120  RH  074%=      5-min Rain = 0
KLA1 100113Z 12005KT 17/12 A3015 RMK A01 T01650119  RH  074%=      5-min Rain = 0
KLA1 100114Z 11005KT 17/12 A3015 RMK A01 T01650120  RH  074%=      5-min Rain = 0
KLA1 100115Z 12005KT 17/12 A3015 RMK A01 T01650119  RH  074%=      5-min Rain = 0
KLA1 100116Z 11005KT 17/12 A3015 RMK A01 T01650119  RH  074%=      5-min Rain = 0
KLA1 100117Z 12005KT 17/12 A3015 RMK A01 T01650119  RH  074%=      5-min Rain = 0
KLA1 100118Z 12005KT 17/12 A3015 RMK A01 T01650120  RH  075%=      5-min Rain = 0
KLA1 100119Z 12005KT 16/12 A3015 RMK A01 T01640120  RH  075%=      5-min Rain = 0
KLA1 100120Z 12005KT 16/12 A3015 RMK A01 T01640120  RH  075%=      5-min Rain = 0
KLA1 100121Z 12005KT 16/12 A3015 RMK A01 T01640120  RH  075%=      5-min Rain = 0
KLA1 100122Z 12005KT 16/12 A3015 RMK A01 T01640120  RH  075%=      5-min Rain = 0
KLA1 100123Z 12005KT 16/12 A3015 RMK A01 T01640120  RH  075%=      5-min Rain = 0
KLA1 100124Z 13005KT 16/12 A3015 RMK A01 T01640120  RH  075%=      5-min Rain = 0
KLA1 100125Z 12005KT 16/12 A3015 RMK A01 T01640120  RH  075%=      5-min Rain = 0
KLA1 100126Z 12006KT 16/12 A3015 RMK A01 T01630120  RH  075%=      5-min Rain = 0
KLA1 100127Z 13006KT 16/12 A3015 RMK A01 T01630120  RH  075%=      5-min Rain = 0
KLA1 100128Z 12005KT 16/12 A3015 RMK A01 T01620119  RH  076%=      5-min Rain = 0
KLA1 100129Z 12005KT 16/12 A3015 RMK A01 T01620120  RH  076%=      5-min Rain = 0
KLA1 100130Z 12006KT 16/12 A3015 RMK A01 T01620120  RH  076%=      5-min Rain = 0
KLA1 100131Z 13006KT 16/12 A3015 RMK A01 T01620119  RH  076%=      5-min Rain = 0
KLA1 100132Z 12005KT 16/12 A3015 RMK A01 T01620119  RH  076%=      5-min Rain = 0
KLA1 100133Z 12005KT 16/12 A3015 RMK A01 T01620120  RH  076%=      5-min Rain = 0
KLA1 100134Z 12005KT 16/12 A3015 RMK A01 T01610119  RH  076%=      5-min Rain = 0
KLA1 100135Z 12006KT 16/12 A3015 RMK A01 T01610120  RH  076%=      5-min Rain = 0
KLA1 100136Z 12005KT 16/12 A3015 RMK A01 T01610119  RH  077%=      5-min Rain = 0
KLA1 100137Z 12006KT 16/12 A3015 RMK A01 T01610119  RH  076%=      5-min Rain = 0
KLA1 100138Z 12005KT 16/12 A3015 RMK A01 T01610120  RH  077%=      5-min Rain = 0
KLA1 100139Z 12005KT 16/12 A3015 RMK A01 T01600119  RH  077%=      5-min Rain = 0
KLA1 100140Z 12006KT 16/12 A3016 RMK A01 T01600120  RH  077%=      5-min Rain = 0
KLA1 100141Z 13005KT 16/12 A3016 RMK A01 T01600120  RH  077%=      5-min Rain = 0
KLA1 100142Z 12005KT 16/12 A3016 RMK A01 T01600120  RH  077%=      5-min Rain = 0
KLA1 100143Z 13005KT 16/12 A3016 RMK A01 T01600120  RH  077%=      5-min Rain = 0
KLA1 100144Z 13005KT 16/12 A3016 RMK A01 T01590119  RH  077%=      5-min Rain = 0
KLA1 100145Z 12005KT 16/12 A3016 RMK A01 T01590119  RH  077%=      5-min Rain = 0
KLA1 100146Z 12005KT 16/12 A3016 RMK A01 T01590119  RH  077%=      5-min Rain = 0
KLA1 100147Z 12006KT 16/12 A3016 RMK A01 T01590119  RH  077%=      5-min Rain = 0
KLA1 100148Z 12005KT 16/12 A3016 RMK A01 T01580119  RH  078%=      5-min Rain = 0
KLA1 100149Z 12005KT 16/12 A3016 RMK A01 T01580119  RH  078%=      5-min Rain = 0
KLA1 100150Z 12005KT 16/12 A3016 RMK A01 T01570119  RH  078%=      5-min Rain = 0
KLA1 100151Z 13005KT 16/12 A3016 RMK A01 T01570119  RH  078%=      5-min Rain = 0
KLA1 100152Z 13004KT 16/12 A3016 RMK A01 T01570119  RH  078%=      5-min Rain = 0
KLA1 100153Z 14006KT 16/12 A3016 RMK A01 T01560119  RH  078%=      5-min Rain = 0
KLA1 100154Z 13005KT 16/12 A3016 RMK A01 T01560119  RH  078%=      5-min Rain = 0
KLA1 100155Z 13005KT 16/12 A3016 RMK A01 T01560119  RH  078%=      5-min Rain = 0
KLA1 100156Z 12005KT 16/12 A3016 RMK A01 T01560119  RH  079%=      5-min Rain = 0
KLA1 100157Z 12005KT 16/12 A3016 RMK A01 T01560119  RH  079%=      5-min Rain = 0
KLA1 100158Z 12004KT 16/12 A3016 RMK A01 T01550119  RH  079%=      5-min Rain = 0
KLA1 100159Z 13005KT 15/12 A3016 RMK A01 T01540119  RH  079%=      5-min Rain = 0
KLA1 100200Z 13005KT 15/12 A3016 RMK A01 T01540119  RH  079%=      5-min Rain = 0
KLA1 100201Z 13005KT 15/12 A3016 RMK A01 T01540119  RH  079%=      5-min Rain = 0
KLA1 100202Z 11004KT 15/12 A3016 RMK A01 T01540119  RH  079%=      5-min Rain = 0
KLA1 100203Z 12005KT 15/12 A3016 RMK A01 T01540118  RH  079%=      5-min Rain = 0
KLA1 100204Z 12006KT 15/12 A3016 RMK A01 T01540119  RH  079%=      5-min Rain = 0
KLA1 100205Z 12005KT 15/12 A3016 RMK A01 T01540118  RH  079%=      5-min Rain = 0
KLA1 100206Z 12006KT 15/12 A3016 RMK A01 T01540119  RH  079%=      5-min Rain = 0
KLA1 100207Z 13007KT 15/12 A3016 RMK A01 T01540118  RH  079%=      5-min Rain = 0
KLA1 100208Z 13005KT 15/12 A3016 RMK A01 T01540118  RH  079%=      5-min Rain = 0
KLA1 100209Z 13006KT 15/12 A3016 RMK A01 T01540118  RH  079%=      5-min Rain = 0
KLA1 100210Z 13006KT 15/12 A3016 RMK A01 T01540118  RH  079%=      5-min Rain = 0
KLA1 100211Z 13004KT 16/12 A3016 RMK A01 T01550118  RH  079%=      5-min Rain = 0
KLA1 100212Z 14006KT 16/12 A3016 RMK A01 T01550118  RH  079%=      5-min Rain = 0
KLA1 100213Z 13005KT 15/12 A3016 RMK A01 T01540118  RH  079%=      5-min Rain = 0
KLA1 100214Z 12005KT 15/12 A3016 RMK A01 T01540118  RH  079%=      5-min Rain = 0
KLA1 100215Z 13004KT 15/12 A3016 RMK A01 T01540118  RH  079%=      5-min Rain = 0
KLA1 100216Z 14006KT 15/12 A3016 RMK A01 T01540118  RH  079%=      5-min Rain = 0
KLA1 100217Z 14005KT 15/12 A3016 RMK A01 T01530118  RH  079%=      5-min Rain = 0
KLA1 100218Z 12006KT 15/12 A3016 RMK A01 T01530118  RH  079%=      5-min Rain = 0
KLA1 100219Z 13005KT 15/12 A3016 RMK A01 T01530118  RH  079%=      5-min Rain = 0
KLA1 100220Z 13006KT 15/12 A3016 RMK A01 T01530117  RH  079%=      5-min Rain = 0
KLA1 100221Z 14006KT 15/12 A3016 RMK A01 T01520117  RH  080%=      5-min Rain = 0
KLA1 100222Z 14005KT 15/12 A3016 RMK A01 T01520117  RH  080%=      5-min Rain = 0
KLA1 100223Z 13004KT 15/12 A3016 RMK A01 T01520117  RH  080%=      5-min Rain = 0
KLA1 100224Z 14004KT 15/12 A3016 RMK A01 T01520117  RH  080%=      5-min Rain = 0
KLA1 100225Z 13004KT 15/12 A3017 RMK A01 T01510117  RH  080%=      5-min Rain = 0
KLA1 100226Z 14004KT 15/12 A3017 RMK A01 T01510117  RH  080%=      5-min Rain = 0
KLA1 100227Z 15003KT 15/12 A3017 RMK A01 T01500117  RH  081%=      5-min Rain = 0
KLA1 100228Z 14004KT 15/12 A3017 RMK A01 T01490117  RH  081%=      5-min Rain = 0
KLA1 100229Z 15005KT 15/12 A3017 RMK A01 T01490117  RH  081%=      5-min Rain = 0
KLA1 100230Z 15006KT 15/12 A3017 RMK A01 T01490117  RH  081%=      5-min Rain = 0
KLA1 100231Z 15006KT 15/12 A3017 RMK A01 T01490117  RH  081%=      5-min Rain = 0
KLA1 100232Z 15005KT 15/12 A3017 RMK A01 T01500117  RH  081%=      5-min Rain = 0
KLA1 100233Z 15006KT 15/12 A3017 RMK A01 T01500117  RH  080%=      5-min Rain = 0
KLA1 100234Z 15006KT 15/12 A3017 RMK A01 T01510117  RH  080%=      5-min Rain = 0
KLA1 100235Z 15007KT 15/12 A3017 RMK A01 T01510117  RH  080%=      5-min Rain = 0
KLA1 100236Z 15005KT 15/12 A3017 RMK A01 T01510117  RH  080%=      5-min Rain = 0
KLA1 100237Z 15007KT 15/12 A3017 RMK A01 T01510117  RH  080%=      5-min Rain = 0
KLA1 100238Z 14007KT 15/12 A3017 RMK A01 T01510117  RH  080%=      5-min Rain = 0
KLA1 100239Z 14006KT 15/12 A3017 RMK A01 T01510116  RH  080%=      5-min Rain = 0
KLA1 100240Z 13005KT 15/12 A3016 RMK A01 T01510116  RH  080%=      5-min Rain = 0
KLA1 100241Z 14007KT 15/12 A3016 RMK A01 T01510116  RH  080%=      5-min Rain = 0
KLA1 100242Z 13006KT 15/12 A3016 RMK A01 T01500116  RH  080%=      5-min Rain = 0
KLA1 100243Z 13005KT 15/12 A3016 RMK A01 T01500116  RH  080%=      5-min Rain = 0
KLA1 100244Z 13005KT 15/12 A3016 RMK A01 T01490116  RH  081%=      5-min Rain = 0
KLA1 100245Z 13004KT 15/12 A3017 RMK A01 T01490116  RH  081%=      5-min Rain = 0
KLA1 100246Z 14005KT 15/12 A3017 RMK A01 T01480116  RH  081%=      5-min Rain = 0
KLA1 100247Z 13005KT 15/12 A3017 RMK A01 T01480116  RH  081%=      5-min Rain = 0
KLA1 100248Z 13005KT 15/12 A3017 RMK A01 T01470116  RH  082%=      5-min Rain = 0
KLA1 100249Z 13005KT 15/12 A3017 RMK A01 T01470116  RH  082%=      5-min Rain = 0
KLA1 100250Z 13005KT 15/12 A3017 RMK A01 T01460116  RH  082%=      5-min Rain = 0
KLA1 100251Z 13004KT 15/12 A3017 RMK A01 T01460116  RH  082%=      5-min Rain = 0
KLA1 100252Z 13005KT 15/12 A3017 RMK A01 T01460116  RH  083%=      5-min Rain = 0
KLA1 100253Z 13006KT 15/12 A3017 RMK A01 T01450116  RH  083%=      5-min Rain = 0
KLA1 100254Z 13005KT 15/12 A3017 RMK A01 T01450116  RH  083%=      5-min Rain = 0
KLA1 100255Z 12005KT 15/12 A3017 RMK A01 T01450116  RH  083%=      5-min Rain = 0
KLA1 100256Z 12005KT 15/12 A3017 RMK A01 T01450116  RH  083%=      5-min Rain = 0
KLA1 100257Z 12005KT 15/12 A3017 RMK A01 T01450116  RH  083%=      5-min Rain = 0
KLA1 100258Z 12004KT 15/12 A3017 RMK A01 T01450116  RH  083%=      5-min Rain = 0
KLA1 100259Z 13005KT 15/12 A3017 RMK A01 T01450116  RH  083%=      5-min Rain = 0
KLA1 100300Z 12004KT 15/12 A3017 RMK A01 T01450116  RH  083%=      5-min Rain = 0
KLA1 100301Z 12004KT 15/12 A3017 RMK A01 T01450116  RH  083%=      5-min Rain = 0
KLA1 100302Z 12004KT 15/12 A3017 RMK A01 T01450116  RH  083%=      5-min Rain = 0
KLA1 100303Z 12005KT 15/12 A3017 RMK A01 T01450116  RH  083%=      5-min Rain = 0
KLA1 100304Z 11005KT 15/12 A3017 RMK A01 T01450116  RH  083%=      5-min Rain = 0
KLA1 100305Z 11006KT 15/12 A3017 RMK A01 T01450116  RH  083%=      5-min Rain = 0
KLA1 100306Z 11006KT 15/12 A3016 RMK A01 T01450116  RH  083%=      5-min Rain = 0
KLA1 100307Z 11006KT 15/12 A3016 RMK A01 T01450116  RH  083%=      5-min Rain = 0
KLA1 100308Z 12005KT 15/12 A3016 RMK A01 T01460116  RH  082%=      5-min Rain = 0
KLA1 100309Z 12006KT 15/12 A3017 RMK A01 T01460116  RH  082%=      5-min Rain = 0
KLA1 100310Z 11005KT 15/12 A3017 RMK A01 T01460116  RH  082%=      5-min Rain = 0
KLA1 100311Z 12005KT 15/12 A3017 RMK A01 T01470116  RH  082%=      5-min Rain = 0
KLA1 100312Z 12005KT 15/12 A3017 RMK A01 T01470116  RH  082%=      5-min Rain = 0
KLA1 100313Z 12005KT 15/12 A3017 RMK A01 T01470116  RH  082%=      5-min Rain = 0
KLA1 100314Z 12005KT 15/12 A3017 RMK A01 T01470116  RH  082%=      5-min Rain = 0
KLA1 100315Z 12006KT 15/12 A3017 RMK A01 T01470116  RH  082%=      5-min Rain = 0
KLA1 100316Z 12005KT 15/12 A3017 RMK A01 T01470116  RH  082%=      5-min Rain = 0
KLA1 100317Z 11005KT 15/12 A3017 RMK A01 T01470116  RH  082%=      5-min Rain = 0
KLA1 100318Z 11005KT 15/12 A3016 RMK A01 T01460115  RH  082%=      5-min Rain = 0
KLA1 100319Z 11005KT 15/12 A3016 RMK A01 T01460116  RH  082%=      5-min Rain = 0
KLA1 100320Z 11005KT 15/12 A3017 RMK A01 T01460115  RH  082%=      5-min Rain = 0
KLA1 100321Z 11004KT 15/12 A3017 RMK A01 T01460116  RH  082%=      5-min Rain = 0
KLA1 100322Z 11005KT 15/12 A3017 RMK A01 T01460116  RH  082%=      5-min Rain = 0
KLA1 100323Z 11006KT 15/12 A3017 RMK A01 T01450115  RH  082%=      5-min Rain = 0
KLA1 100324Z 11006KT 15/12 A3016 RMK A01 T01450115  RH  082%=      5-min Rain = 0
KLA1 100325Z 11005KT 15/12 A3016 RMK A01 T01450115  RH  082%=      5-min Rain = 0
KLA1 100326Z 11005KT 15/12 A3016 RMK A01 T01450115  RH  082%=      5-min Rain = 0
KLA1 100327Z 12005KT 15/12 A3016 RMK A01 T01450115  RH  082%=      5-min Rain = 0
KLA1 100328Z 11005KT 15/12 A3016 RMK A01 T01450115  RH  082%=      5-min Rain = 0
KLA1 100329Z 11004KT 15/12 A3016 RMK A01 T01450115  RH  082%=      5-min Rain = 0
KLA1 100330Z 11004KT 15/12 A3016 RMK A01 T01450115  RH  082%=      5-min Rain = 0
KLA1 100331Z 12004KT 14/12 A3016 RMK A01 T01440115  RH  083%=      5-min Rain = 0
KLA1 100332Z 11006KT 14/12 A3016 RMK A01 T01440115  RH  083%=      5-min Rain = 0
KLA1 100333Z 11005KT 14/12 A3016 RMK A01 T01440115  RH  083%=      5-min Rain = 0
KLA1 100334Z 12006KT 14/12 A3016 RMK A01 T01440115  RH  083%=      5-min Rain = 0
KLA1 100335Z 11005KT 14/12 A3016 RMK A01 T01440115  RH  083%=      5-min Rain = 0
KLA1 100336Z 12004KT 14/12 A3016 RMK A01 T01440115  RH  083%=      5-min Rain = 0
KLA1 100337Z 11003KT 14/12 A3017 RMK A01 T01440115  RH  083%=      5-min Rain = 0
KLA1 100338Z 12004KT 14/12 A3017 RMK A01 T01440115  RH  083%=      5-min Rain = 0
KLA1 100339Z 12004KT 14/12 A3017 RMK A01 T01430115  RH  083%=      5-min Rain = 0
KLA1 100340Z 11004KT 14/12 A3017 RMK A01 T01430115  RH  083%=      5-min Rain = 0
KLA1 100341Z 12004KT 14/12 A3017 RMK A01 T01430115  RH  083%=      5-min Rain = 0
KLA1 100342Z 12004KT 14/12 A3017 RMK A01 T01430115  RH  083%=      5-min Rain = 0
KLA1 100343Z 12004KT 14/12 A3017 RMK A01 T01420115  RH  084%=      5-min Rain = 0
KLA1 100344Z 12004KT 14/12 A3017 RMK A01 T01420115  RH  084%=      5-min Rain = 0
KLA1 100345Z 11004KT 14/12 A3016 RMK A01 T01420115  RH  084%=      5-min Rain = 0
KLA1 100346Z 11004KT 14/12 A3016 RMK A01 T01410115  RH  084%=      5-min Rain = 0
KLA1 100347Z 11004KT 14/12 A3016 RMK A01 T01410115  RH  084%=      5-min Rain = 0
KLA1 100348Z 11005KT 14/11 A3016 RMK A01 T01410114  RH  084%=      5-min Rain = 0
KLA1 100349Z 12005KT 14/12 A3016 RMK A01 T01410115  RH  084%=      5-min Rain = 0
KLA1 100350Z 12004KT 14/12 A3017 RMK A01 T01410115  RH  084%=      5-min Rain = 0
KLA1 100351Z 13004KT 14/11 A3017 RMK A01 T01410114  RH  084%=      5-min Rain = 0
KLA1 100352Z 12004KT 14/12 A3017 RMK A01 T01410115  RH  084%=      5-min Rain = 0
KLA1 100353Z 12004KT 14/12 A3017 RMK A01 T01410115  RH  084%=      5-min Rain = 0
KLA1 100354Z 11004KT 14/12 A3017 RMK A01 T01410115  RH  084%=      5-min Rain = 0
KLA1 100355Z 12005KT 14/12 A3017 RMK A01 T01410115  RH  084%=      5-min Rain = 0
KLA1 100356Z 11005KT 14/11 A3017 RMK A01 T01400114  RH  085%=      5-min Rain = 0
KLA1 100357Z 11005KT 14/11 A3017 RMK A01 T01400114  RH  085%=      5-min Rain = 0
KLA1 100358Z 11005KT 14/11 A3017 RMK A01 T01400114  RH  085%=      5-min Rain = 0
KLA1 100359Z 11004KT 14/11 A3017 RMK A01 T01400114  RH  085%=      5-min Rain = 0
KLA1 100400Z 11005KT 14/11 A3017 RMK A01 T01400114  RH  085%=      5-min Rain = 0
KLA1 100401Z 11005KT 14/12 A3017 RMK A01 T01400115  RH  085%=      5-min Rain = 0
KLA1 100402Z 11005KT 14/12 A3017 RMK A01 T01400115  RH  085%=      5-min Rain = 0
KLA1 100403Z 11005KT 14/12 A3017 RMK A01 T01400115  RH  085%=      5-min Rain = 0
KLA1 100404Z 11005KT 14/11 A3017 RMK A01 T01400114  RH  085%=      5-min Rain = 0
KLA1 100405Z 11005KT 14/11 A3017 RMK A01 T01400114  RH  085%=      5-min Rain = 0
KLA1 100406Z 11005KT 14/12 A3017 RMK A01 T01400115  RH  084%=      5-min Rain = 0
KLA1 100407Z 11005KT 14/11 A3017 RMK A01 T01400114  RH  084%=      5-min Rain = 0
KLA1 100408Z 11005KT 14/12 A3017 RMK A01 T01400115  RH  084%=      5-min Rain = 0
KLA1 100409Z 11005KT 14/12 A3017 RMK A01 T01400115  RH  085%=      5-min Rain = 0
KLA1 100410Z 11005KT 14/12 A3017 RMK A01 T01400115  RH  085%=      5-min Rain = 0
KLA1 100411Z 11005KT 14/12 A3017 RMK A01 T01400115  RH  085%=      5-min Rain = 0
KLA1 100412Z 11005KT 14/12 A3017 RMK A01 T01400115  RH  085%=      5-min Rain = 0
KLA1 100413Z 11005KT 14/12 A3017 RMK A01 T01400115  RH  085%=      5-min Rain = 0
KLA1 100414Z 11006KT 14/12 A3017 RMK A01 T01400115  RH  085%=      5-min Rain = 0
KLA1 100415Z 11005KT 14/12 A3017 RMK A01 T01400115  RH  085%=      5-min Rain = 0
KLA1 100416Z 11005KT 14/12 A3017 RMK A01 T01400115  RH  085%=      5-min Rain = 0
KLA1 100417Z 11005KT 14/12 A3017 RMK A01 T01400115  RH  085%=      5-min Rain = 0
KLA1 100418Z 11005KT 14/12 A3017 RMK A01 T01400115  RH  085%=      5-min Rain = 0
KLA1 100419Z 11004KT 14/12 A3017 RMK A01 T01400115  RH  085%=      5-min Rain = 0
KLA1 100420Z 11005KT 14/12 A3017 RMK A01 T01400115  RH  085%=      5-min Rain = 0
KLA1 100421Z 11004KT 14/12 A3017 RMK A01 T01400115  RH  085%=      5-min Rain = 0
KLA1 100422Z 11005KT 14/12 A3017 RMK A01 T01400115  RH  085%=      5-min Rain = 0
KLA1 100423Z 11005KT 14/12 A3017 RMK A01 T01400115  RH  085%=      5-min Rain = 0
KLA1 100424Z 10005KT 14/12 A3017 RMK A01 T01400115  RH  085%=      5-min Rain = 0
KLA1 100425Z 11005KT 14/12 A3017 RMK A01 T01400115  RH  084%=      5-min Rain = 0
KLA1 100426Z 11005KT 14/11 A3017 RMK A01 T01400114  RH  084%=      5-min Rain = 0
KLA1 100427Z 11005KT 14/11 A3017 RMK A01 T01400114  RH  084%=      5-min Rain = 0
KLA1 100428Z 11005KT 14/12 A3017 RMK A01 T01400115  RH  084%=      5-min Rain = 0
KLA1 100429Z 12004KT 14/11 A3017 RMK A01 T01400114  RH  084%=      5-min Rain = 0
KLA1 100430Z 11004KT 14/12 A3017 RMK A01 T01400115  RH  084%=      5-min Rain = 0
KLA1 100431Z 11005KT 14/11 A3017 RMK A01 T01400114  RH  084%=      5-min Rain = 0
KLA1 100432Z 12005KT 14/11 A3017 RMK A01 T01400114  RH  085%=      5-min Rain = 0
KLA1 100433Z 11006KT 14/11 A3017 RMK A01 T01390114  RH  085%=      5-min Rain = 0
KLA1 100434Z 12006KT 14/11 A3017 RMK A01 T01390114  RH  085%=      5-min Rain = 0
KLA1 100435Z 12004KT 14/11 A3017 RMK A01 T01390114  RH  085%=      5-min Rain = 0
KLA1 100436Z 11005KT 14/11 A3017 RMK A01 T01390114  RH  085%=      5-min Rain = 0
KLA1 100437Z 12005KT 14/11 A3017 RMK A01 T01390114  RH  085%=      5-min Rain = 0
KLA1 100438Z 12005KT 14/11 A3017 RMK A01 T01390114  RH  085%=      5-min Rain = 0
KLA1 100439Z 11005KT 14/11 A3017 RMK A01 T01390114  RH  085%=      5-min Rain = 0
KLA1 100440Z 11006KT 14/11 A3017 RMK A01 T01380114  RH  085%=      5-min Rain = 0
KLA1 100441Z 11005KT 14/11 A3017 RMK A01 T01380114  RH  085%=      5-min Rain = 0
KLA1 100442Z 11006KT 14/11 A3017 RMK A01 T01380114  RH  086%=      5-min Rain = 0
KLA1 100443Z 11005KT 14/11 A3017 RMK A01 T01380114  RH  086%=      5-min Rain = 0
KLA1 100444Z 12006KT 14/11 A3017 RMK A01 T01380114  RH  085%=      5-min Rain = 0
KLA1 100445Z 11006KT 14/11 A3017 RMK A01 T01380114  RH  085%=      5-min Rain = 0
KLA1 100446Z 11005KT 14/11 A3017 RMK A01 T01380114  RH  085%=      5-min Rain = 0
KLA1 100447Z 11005KT 14/11 A3017 RMK A01 T01380114  RH  085%=      5-min Rain = 0
KLA1 100448Z 12005KT 14/11 A3017 RMK A01 T01380114  RH  085%=      5-min Rain = 0
KLA1 100449Z 12005KT 14/11 A3017 RMK A01 T01370114  RH  086%=      5-min Rain = 0
KLA1 100450Z 11006KT 14/11 A3017 RMK A01 T01380114  RH  086%=      5-min Rain = 0
KLA1 100451Z 11005KT 14/11 A3017 RMK A01 T01370114  RH  086%=      5-min Rain = 0
KLA1 100452Z 11005KT 14/11 A3017 RMK A01 T01380114  RH  085%=      5-min Rain = 0
KLA1 100453Z 12004KT 14/11 A3017 RMK A01 T01370113  RH  085%=      5-min Rain = 0
KLA1 100454Z 12004KT 14/11 A3017 RMK A01 T01380114  RH  085%=      5-min Rain = 0
KLA1 100455Z 11004KT 14/11 A3017 RMK A01 T01370114  RH  086%=      5-min Rain = 0
KLA1 100456Z 11005KT 14/11 A3017 RMK A01 T01370114  RH  086%=      5-min Rain = 0
KLA1 100457Z 11005KT 14/11 A3017 RMK A01 T01370114  RH  086%=      5-min Rain = 0
KLA1 100458Z 11005KT 14/11 A3017 RMK A01 T01370114  RH  086%=      5-min Rain = 0
KLA1 100459Z 11004KT 14/11 A3017 RMK A01 T01370114  RH  086%=      5-min Rain = 0
KLA1 100500Z 11004KT 14/11 A3017 RMK A01 T01370114  RH  086%=      5-min Rain = 0
KLA1 100501Z 11004KT 14/11 A3017 RMK A01 T01370114  RH  086%=      5-min Rain = 0
KLA1 100502Z 11004KT 14/11 A3017 RMK A01 T01370113  RH  086%=      5-min Rain = 0
KLA1 100503Z 11004KT 14/11 A3016 RMK A01 T01370114  RH  086%=      5-min Rain = 0
KLA1 100504Z 11005KT 14/11 A3016 RMK A01 T01370114  RH  086%=      5-min Rain = 0
KLA1 100505Z 11006KT 14/11 A3016 RMK A01 T01370114  RH  086%=      5-min Rain = 0
KLA1 100506Z 11006KT 14/11 A3016 RMK A01 T01370114  RH  086%=      5-min Rain = 0
KLA1 100507Z 11005KT 14/11 A3016 RMK A01 T01370114  RH  086%=      5-min Rain = 0
KLA1 100508Z 11005KT 14/11 A3016 RMK A01 T01370114  RH  086%=      5-min Rain = 0
KLA1 100509Z 12004KT 14/11 A3016 RMK A01 T01370114  RH  086%=      5-min Rain = 0
KLA1 100510Z 12005KT 14/11 A3016 RMK A01 T01370114  RH  086%=      5-min Rain = 0
KLA1 100511Z 11005KT 14/11 A3016 RMK A01 T01370114  RH  086%=      5-min Rain = 0
KLA1 100512Z 11005KT 14/11 A3016 RMK A01 T01370114  RH  086%=      5-min Rain = 0
KLA1 100513Z 12005KT 14/11 A3016 RMK A01 T01370114  RH  086%=      5-min Rain = 0
KLA1 100514Z 13005KT 14/11 A3016 RMK A01 T01370113  RH  086%=      5-min Rain = 0
KLA1 100515Z 12004KT 14/11 A3016 RMK A01 T01370114  RH  086%=      5-min Rain = 0
KLA1 100516Z 11005KT 14/11 A3016 RMK A01 T01370114  RH  086%=      5-min Rain = 0
KLA1 100517Z 11005KT 14/11 A3016 RMK A01 T01370114  RH  086%=      5-min Rain = 0
KLA1 100518Z 12005KT 14/11 A3016 RMK A01 T01370113  RH  086%=      5-min Rain = 0
KLA1 100519Z 12005KT 14/11 A3016 RMK A01 T01370114  RH  086%=      5-min Rain = 0
KLA1 100520Z 11005KT 14/11 A3016 RMK A01 T01370113  RH  086%=      5-min Rain = 0
KLA1 100521Z 11005KT 14/11 A3016 RMK A01 T01370114  RH  086%=      5-min Rain = 0
KLA1 100522Z 11005KT 14/11 A3016 RMK A01 T01370114  RH  086%=      5-min Rain = 0
KLA1 100523Z 12005KT 14/11 A3016 RMK A01 T01370114  RH  086%=      5-min Rain = 0
KLA1 100524Z 12005KT 14/11 A3016 RMK A01 T01370114  RH  086%=      5-min Rain = 0
KLA1 100525Z 11006KT 14/11 A3016 RMK A01 T01370114  RH  086%=      5-min Rain = 0
KLA1 100526Z 12005KT 14/11 A3016 RMK A01 T01370114  RH  086%=      5-min Rain = 0
KLA1 100527Z 12005KT 14/11 A3016 RMK A01 T01370114  RH  086%=      5-min Rain = 0
KLA1 100528Z 13006KT 14/11 A3016 RMK A01 T01360114  RH  086%=      5-min Rain = 0
KLA1 100529Z 11005KT 14/11 A3016 RMK A01 T01360114  RH  086%=      5-min Rain = 0
KLA1 100530Z 12005KT 14/11 A3016 RMK A01 T01360114  RH  086%=      5-min Rain = 0
KLA1 100531Z 12004KT 14/11 A3016 RMK A01 T01360114  RH  086%=      5-min Rain = 0
KLA1 100532Z 12004KT 14/11 A3016 RMK A01 T01360114  RH  086%=      5-min Rain = 0
KLA1 100533Z 12005KT 14/11 A3016 RMK A01 T01350114  RH  087%=      5-min Rain = 0
KLA1 100534Z 12005KT 14/11 A3016 RMK A01 T01350113  RH  087%=      5-min Rain = 0
KLA1 100535Z 12006KT 14/11 A3016 RMK A01 T01350114  RH  087%=      5-min Rain = 0
KLA1 100536Z 11005KT 14/11 A3016 RMK A01 T01350114  RH  087%=      5-min Rain = 0
KLA1 100537Z 12005KT 14/11 A3016 RMK A01 T01350114  RH  087%=      5-min Rain = 0
KLA1 100538Z 12005KT 14/11 A3016 RMK A01 T01350114  RH  087%=      5-min Rain = 0
KLA1 100539Z 12006KT 13/11 A3016 RMK A01 T01340114  RH  087%=      5-min Rain = 0
KLA1 100540Z 12006KT 13/11 A3016 RMK A01 T01340114  RH  087%=      5-min Rain = 0
KLA1 100541Z 12005KT 13/11 A3016 RMK A01 T01340114  RH  087%=      5-min Rain = 0
KLA1 100542Z 12006KT 13/11 A3016 RMK A01 T01340114  RH  087%=      5-min Rain = 0
KLA1 100543Z 12004KT 13/11 A3016 RMK A01 T01340114  RH  088%=      5-min Rain = 0
KLA1 100544Z 12007KT 13/11 A3015 RMK A01 T01340114  RH  088%=      5-min Rain = 0
KLA1 100545Z 12006KT 13/11 A3015 RMK A01 T01340114  RH  088%=      5-min Rain = 0
KLA1 100546Z 13007KT 13/11 A3015 RMK A01 T01340114  RH  088%=      5-min Rain = 0
KLA1 100547Z 12006KT 13/11 A3015 RMK A01 T01340114  RH  088%=      5-min Rain = 0
KLA1 100548Z 12005KT 13/11 A3015 RMK A01 T01340114  RH  088%=      5-min Rain = 0
KLA1 100549Z 13005KT 13/11 A3015 RMK A01 T01340114  RH  088%=      5-min Rain = 0
KLA1 100550Z 13005KT 13/11 A3016 RMK A01 T01340114  RH  088%=      5-min Rain = 0
KLA1 100551Z 12006KT 13/11 A3015 RMK A01 T01340114  RH  088%=      5-min Rain = 0
KLA1 100552Z 12006KT 13/11 A3015 RMK A01 T01330114  RH  088%=      5-min Rain = 0
KLA1 100553Z 13006KT 13/11 A3015 RMK A01 T01340114  RH  088%=      5-min Rain = 0
KLA1 100554Z 12005KT 13/11 A3015 RMK A01 T01340114  RH  088%=      5-min Rain = 0
KLA1 100555Z 12006KT 13/11 A3015 RMK A01 T01330114  RH  088%=      5-min Rain = 0
KLA1 100556Z 12005KT 13/11 A3015 RMK A01 T01330114  RH  088%=      5-min Rain = 0
KLA1 100557Z 13006KT 13/11 A3015 RMK A01 T01330114  RH  088%=      5-min Rain = 0
KLA1 100558Z 13006KT 13/11 A3015 RMK A01 T01330114  RH  088%=      5-min Rain = 0
KLA1 100559Z 13005KT 13/11 A3015 RMK A01 T01330114  RH  088%=      5-min Rain = 0

Page generated in 0.0715 seconds.